ECMWFFLT1_850_spd_000.txt.gz
Wind_Speed
32 32 30 28 27 26 24 21 19 16 12 11 11 11 11 11 10 10 12 15 17 17 17 18 17 17 16 16 16 18 18 17 16 16 17 18 18 19 20 20 20 19 18 17 17 17 17 17 18 19 21 22 24 26 27 27 25 25 24 23 24 24 24
33 34 32 31 29 27 24 21 18 16 13 12 13 13 12 10 10 11 13 16 18 18 18 18 18 18 17 17 17 17 17 15 15 15 16 17 18 18 19 19 20 20 19 19 18 18 17 18 18 19 21 23 24 26 27 28 28 27 27 28 29 29 29
35 36 35 32 30 27 24 21 19 17 15 13 13 13 11 10 10 12 14 17 18 18 18 19 19 18 17 17 17 17 16 15 15 15 16 17 18 19 19 19 19 19 19 19 18 18 18 18 18 18 20 21 23 25 26 28 29 30 29 30 31 32 32
37 37 36 33 31 28 24 21 19 18 16 14 14 13 11 10 11 13 16 17 18 18 18 19 19 18 17 16 17 17 16 16 16 16 16 18 19 19 20 20 19 18 18 18 18 19 19 19 19 19 19 20 22 23 24 26 28 30 30 30 31 33 34
37 37 37 35 32 29 25 22 20 19 16 14 14 13 11 11 12 14 16 17 17 18 18 19 20 18 16 15 16 16 16 16 17 17 17 19 19 20 20 20 19 18 17 17 17 18 18 20 21 21 21 20 21 21 21 23 24 26 28 28 28 30 33
38 39 39 37 33 30 26 23 21 19 16 15 14 13 12 11 12 15 15 17 17 17 17 19 19 17 15 15 15 15 15 16 17 17 19 20 20 21 20 20 18 17 17 17 17 18 19 20 21 21 22 22 21 21 20 20 21 23 24 25 26 28 30
40 41 40 37 34 29 26 23 21 19 17 16 15 15 13 11 13 14 15 16 15 16 17 18 18 16 14 14 14 13 14 15 17 18 19 20 21 22 20 19 17 17 18 18 18 18 19 19 20 20 22 22 22 22 21 21 21 22 23 24 24 26 27
40 41 40 36 33 28 25 24 21 18 17 17 17 17 13 11 13 14 14 15 15 16 17 18 17 15 13 13 12 12 13 15 16 17 19 20 22 21 19 18 17 16 17 18 17 17 17 18 19 20 22 23 23 22 22 23 24 24 24 25 25 25 26
38 38 37 34 31 27 25 24 20 18 17 18 19 16 12 12 13 14 13 14 15 16 17 18 17 15 13 13 11 11 12 14 16 17 18 19 20 20 19 17 16 16 17 17 16 16 16 18 19 20 22 23 24 23 23 25 26 26 26 26 26 26 27
34 34 33 32 29 26 26 24 20 18 18 20 18 14 11 12 13 13 13 14 16 17 18 18 17 15 13 12 10 10 11 13 15 16 17 19 19 19 19 17 16 16 17 19 18 17 17 18 20 21 22 22 23 24 25 26 29 29 29 28 27 27 27
32 32 31 30 28 27 26 23 19 18 19 19 16 12 11 12 12 13 13 14 15 17 18 18 17 14 12 11 10 11 11 12 14 15 16 18 19 20 20 18 17 17 19 20 21 20 18 18 19 21 22 21 21 23 24 27 30 30 29 28 28 28 27
31 31 31 31 29 28 26 21 19 18 19 18 14 11 10 11 12 12 13 14 15 16 18 17 15 13 12 11 11 10 11 12 14 15 16 18 19 20 20 19 18 19 20 21 21 20 18 17 19 22 23 21 20 21 23 24 27 28 29 30 31 31 29
31 31 32 32 30 28 24 21 19 19 19 17 12 10 9 10 12 13 14 14 14 16 17 15 13 12 11 11 11 10 10 12 13 14 16 18 19 19 19 19 19 19 20 20 20 18 17 17 18 21 22 20 20 22 23 24 25 27 29 32 33 33 31
30 31 32 32 30 27 24 21 20 20 19 15 11 10 9 10 12 13 13 13 13 15 15 13 11 11 11 11 10 10 10 11 12 14 16 18 19 20 19 19 19 19 19 19 19 17 17 17 18 19 19 19 20 22 23 25 26 28 29 32 34 34 33
31 33 34 33 30 27 24 22 21 21 18 14 11 9 9 12 13 13 13 12 12 14 14 12 10 9 9 9 9 9 9 10 12 14 16 18 19 19 19 19 19 19 18 18 18 17 17 17 17 18 18 18 19 21 23 25 27 27 28 31 34 36 35
34 35 36 34 30 27 24 22 22 20 17 14 10 8 10 13 13 12 12 11 12 13 13 12 11 9 9 8 7 8 9 10 12 14 16 17 18 18 19 19 19 19 18 17 16 16 17 17 16 17 17 18 19 19 21 23 24 24 26 30 33 35 34
35 37 36 33 30 27 24 23 22 20 17 13 9 8 12 12 12 11 11 11 11 11 11 12 12 11 9 8 8 8 10 11 13 15 15 16 17 18 19 19 19 19 17 16 16 16 17 17 16 16 17 17 19 19 19 21 20 20 24 29 31 33 33
37 38 36 33 30 27 25 24 23 20 17 11 8 10 12 11 10 10 10 10 10 9 11 13 14 12 11 9 9 10 12 13 14 15 16 17 18 18 19 19 20 20 18 16 16 17 17 17 17 17 16 17 19 19 20 20 19 20 24 27 29 31 33
39 38 36 33 31 28 26 24 23 19 14 9 9 10 11 10 9 9 8 8 8 9 11 13 14 14 13 11 11 13 14 15 16 16 17 18 19 19 19 20 21 20 18 16 16 16 16 17 17 16 16 16 18 20 20 21 20 21 24 26 27 29 32
39 37 34 33 31 28 25 23 22 18 12 9 10 10 10 10 9 8 7 7 8 9 11 13 14 15 15 14 14 15 16 16 17 17 18 19 20 20 19 20 20 18 16 16 16 15 16 16 15 15 15 16 17 19 20 21 22 22 24 25 26 28 31
38 35 34 33 30 26 24 23 21 16 12 10 10 10 10 9 7 7 8 7 8 9 11 13 15 16 16 16 16 16 17 17 17 17 19 20 20 18 17 18 18 16 15 15 15 15 15 14 14 15 16 17 18 17 17 19 21 22 23 24 26 28 30
34 32 32 30 27 24 23 22 18 14 12 11 11 11 9 7 7 8 8 8 8 9 11 13 15 17 17 17 17 17 17 17 17 18 19 20 20 17 16 16 16 15 15 15 15 14 13 13 15 16 16 18 18 16 15 16 19 22 23 24 25 27 30
27 27 27 25 22 21 19 16 13 12 12 13 13 12 8 6 8 10 10 9 10 10 11 14 16 17 18 18 18 18 17 16 16 17 19 20 19 17 16 15 15 15 15 16 15 13 13 14 15 15 16 18 17 16 14 15 17 20 22 23 24 25 28
24 22 21 20 20 18 16 13 12 13 14 15 15 13 9 8 10 12 12 11 11 11 12 15 16 16 17 17 17 16 15 15 15 16 18 18 17 15 14 14 14 14 15 16 16 14 13 15 15 15 17 18 17 15 15 14 16 19 20 22 24 25 26
21 19 18 17 16 15 15 14 15 16 17 18 17 14 11 11 12 13 14 14 12 12 14 16 15 15 15 15 14 13 13 14 14 14 15 15 14 14 14 14 13 14 14 15 15 13 13 14 14 15 17 19 18 16 16 16 16 18 19 21 23 25 26
16 16 15 15 14 14 14 15 16 18 20 19 16 13 12 14 15 16 16 15 13 14 16 16 15 14 15 15 13 12 12 13 14 14 13 13 13 13 14 14 14 15 15 15 14 12 12 13 13 14 17 19 19 18 18 18 17 18 19 20 21 23 25
15 13 12 13 15 16 16 17 19 20 20 19 15 13 13 15 17 18 17 17 16 17 17 15 14 15 17 16 13 12 12 13 15 15 14 14 14 13 13 14 15 16 15 15 14 12 13 14 14 15 17 18 19 19 18 18 18 18 18 20 20 21 23
15 14 13 15 16 17 18 19 21 21 21 19 16 14 14 16 18 19 18 18 18 18 17 15 16 17 16 16 14 14 14 14 15 16 15 15 13 12 13 14 15 15 14 14 13 13 13 14 15 16 17 17 18 18 17 17 17 17 18 19 20 20 21
15 14 15 17 18 20 21 21 23 23 22 19 17 16 15 17 19 19 19 19 18 17 16 16 18 18 17 17 17 16 16 16 16 16 16 15 13 11 12 12 13 13 13 13 13 13 13 14 15 16 18 18 17 17 16 15 15 16 17 18 19 20 20
13 14 16 17 19 21 22 23 24 23 21 18 17 16 16 18 19 19 19 18 15 14 16 17 18 19 19 19 19 19 20 19 18 17 17 16 13 11 11 12 11 12 13 14 15 15 15 15 15 16 17 18 17 16 16 14 13 13 14 16 17 18 19
13 14 15 17 19 21 23 24 24 22 20 18 17 16 17 18 18 18 17 15 13 14 16 18 18 18 19 19 20 21 22 22 20 18 17 16 14 12 12 13 13 12 13 15 16 16 16 15 15 15 16 17 17 16 16 14 13 13 12 13 15 15 17
12 13 14 16 17 20 22 24 24 23 20 18 17 16 17 17 17 17 15 13 13 14 16 18 18 18 18 18 19 21 22 21 20 18 17 15 14 13 12 13 14 14 14 15 16 16 15 15 15 15 15 16 16 16 16 14 13 13 12 12 14 14 14
11 11 12 13 15 17 20 22 24 23 20 18 17 17 17 17 16 15 14 13 14 15 16 18 19 19 18 18 19 20 21 19 18 17 16 16 17 16 13 11 13 14 14 15 16 16 15 14 14 15 15 15 16 16 15 14 13 13 14 13 14 15 15
8 9 11 12 13 15 17 19 20 20 18 17 17 18 18 17 15 14 14 13 14 15 16 17 19 20 20 19 19 19 18 17 17 17 16 17 19 18 14 10 11 13 14 14 15 15 15 15 14 14 14 14 15 15 15 14 13 14 15 15 15 16 17
5 7 8 9 11 12 13 15 16 16 15 15 16 18 18 17 15 14 13 13 14 15 15 17 18 20 20 19 18 17 16 17 18 18 17 18 18 18 15 12 12 13 14 14 15 15 15 15 14 14 13 14 14 15 14 14 14 14 14 15 15 15 17
4 6 7 8 9 10 11 13 14 14 14 14 15 17 17 16 15 14 14 14 15 15 16 16 18 19 20 19 18 17 17 19 20 20 19 18 18 18 17 15 14 15 15 16 16 15 14 15 14 14 13 13 13 14 14 14 14 13 13 13 14 14 16
6 8 9 10 10 10 11 12 13 13 13 14 15 16 17 16 15 14 15 15 16 17 17 18 19 19 19 20 19 18 18 19 19 18 17 16 16 18 18 17 16 15 15 15 15 14 14 14 14 13 13 13 13 13 13 14 14 13 13 12 12 13 15
8 8 9 10 10 11 11 12 12 13 13 14 15 16 17 17 17 17 17 18 19 20 19 19 21 21 20 22 22 21 20 19 17 16 16 16 17 18 18 17 15 14 12 12 13 12 12 12 13 13 13 14 13 13 13 13 13 13 13 11 10 11 13

ECMWFFLT1_850_spd_006.txt.gz
Wind_Speed
24 24 23 21 21 22 23 23 23 25 27 27 25 21 17 14 12 8 6 6 6 7 8 10 10 9 10 11 12 12 11 11 11 9 6 6 6 7 8 9 10 10 10 10 11 11 11 10 10 10 11 12 12 13 14 14 15 15 15 16 17 18 19
25 25 24 22 22 23 23 24 25 27 29 28 25 22 18 16 12 9 7 7 8 9 9 10 9 9 10 12 12 11 11 10 10 8 6 5 6 7 8 10 9 9 9 10 10 10 9 9 9 10 11 12 12 13 14 16 16 15 14 14 15 16 17
23 24 24 23 23 24 25 26 28 29 29 28 25 22 19 16 12 9 8 8 9 9 9 9 9 10 11 12 12 11 11 11 9 7 5 4 6 7 9 9 9 9 9 8 9 9 9 9 10 10 10 11 12 12 13 16 17 16 14 14 15 16 18
22 24 24 23 23 24 25 29 32 31 29 27 25 22 19 16 12 10 10 9 10 10 9 9 9 11 11 12 11 11 11 11 9 7 5 5 6 7 9 9 9 9 8 8 8 8 9 9 10 10 11 12 12 12 13 15 17 17 15 14 15 16 18
21 23 24 23 24 24 26 31 34 31 27 26 25 23 19 16 13 12 11 11 12 11 9 8 9 11 11 12 12 11 12 11 10 8 6 5 6 7 8 9 9 9 8 8 8 8 9 9 10 11 12 12 13 13 15 16 16 16 15 14 15 16 17
21 23 25 25 25 26 28 32 32 29 26 24 25 24 20 16 14 13 12 13 13 12 10 9 10 11 11 12 12 13 13 11 10 9 7 6 7 7 8 9 10 10 9 9 9 9 10 11 11 12 13 13 13 14 16 16 16 16 15 15 15 16 17
21 23 25 26 26 27 29 30 29 27 25 24 25 24 20 17 15 14 13 14 14 12 10 9 11 11 11 12 13 13 12 11 10 9 8 7 7 8 8 10 10 10 10 10 10 10 11 12 13 13 14 14 14 15 16 17 17 17 16 15 15 17 19
20 22 25 27 27 26 28 29 27 26 24 24 25 24 20 18 16 15 15 14 12 10 8 8 10 12 11 12 12 13 12 10 10 9 8 8 8 8 9 10 11 12 12 12 12 12 11 12 13 14 15 15 15 15 17 18 17 16 16 16 17 18 19
19 20 23 26 27 25 27 28 27 26 27 28 28 25 22 20 17 15 15 14 12 11 9 8 10 11 12 12 12 12 11 10 9 9 9 8 8 8 8 9 10 12 14 14 14 13 13 13 13 14 15 16 16 16 17 18 17 16 16 17 19 20 20
18 19 21 24 25 24 25 28 29 31 32 32 29 26 24 21 18 16 16 14 11 10 9 9 10 11 12 12 12 11 10 9 9 9 9 8 8 8 8 9 10 11 14 16 16 15 14 14 14 15 16 16 17 17 17 17 17 17 17 17 19 20 20
18 19 20 23 25 25 26 30 35 37 36 33 30 27 25 21 18 17 16 14 11 9 9 10 11 11 12 12 12 11 10 9 9 9 9 9 8 8 9 10 11 12 13 15 16 16 16 16 15 16 17 17 17 17 17 17 17 18 19 19 20 21 22
16 18 20 23 26 28 30 33 38 40 36 33 30 28 25 22 19 17 16 15 13 10 10 12 12 12 12 11 10 10 10 9 9 10 9 9 9 9 10 10 11 12 13 14 15 16 16 17 17 17 17 17 18 18 18 17 18 19 20 21 21 22 24
15 17 19 22 24 26 29 33 38 39 36 33 30 28 25 22 19 17 17 16 14 12 12 13 13 12 12 10 10 10 10 10 10 10 9 9 10 10 10 11 11 12 13 14 15 16 16 17 18 18 17 17 18 19 19 18 19 19 20 21 21 22 24
15 16 18 21 24 27 30 33 36 37 36 33 30 28 25 22 19 18 17 16 14 13 13 13 13 12 11 10 10 10 10 10 10 10 10 9 10 10 11 12 14 14 15 16 16 17 17 17 18 18 17 17 18 19 19 19 18 18 19 20 21 21 23
16 17 18 21 25 27 30 33 35 36 36 34 31 28 25 22 20 19 18 16 14 13 13 13 13 12 11 10 10 10 11 11 11 10 10 9 10 11 13 14 16 16 16 16 17 17 18 18 18 18 16 16 17 18 18 18 17 17 18 19 20 20 22
17 18 20 22 24 26 28 32 34 36 36 34 31 29 26 23 22 20 17 15 14 14 14 14 13 12 11 11 10 11 12 13 12 11 11 11 11 12 14 16 16 15 16 17 17 16 17 18 17 16 14 14 15 16 16 16 17 17 19 20 19 19 21
17 19 20 22 23 24 26 29 33 36 36 35 32 29 26 24 22 19 17 15 14 14 14 14 13 13 12 11 11 11 13 13 13 12 12 13 13 14 15 17 17 16 17 18 17 16 16 17 16 15 14 13 14 15 14 15 17 19 20 21 20 19 20
16 18 19 21 22 24 26 29 33 36 37 35 32 29 26 24 22 19 17 16 15 14 14 13 13 13 13 12 11 12 13 13 13 14 14 15 15 16 17 18 17 17 19 18 16 15 16 16 15 14 13 13 14 15 14 15 18 20 21 21 19 18 19
15 15 17 20 22 24 27 28 32 37 37 34 31 28 25 24 22 19 18 16 15 14 14 13 13 13 13 12 11 12 13 13 13 14 15 15 16 17 18 19 18 17 18 16 15 15 16 15 15 13 13 13 14 15 14 15 17 20 20 20 18 18 18
13 13 16 18 20 23 25 25 30 36 36 32 30 27 24 23 22 19 17 16 15 15 13 13 14 14 13 12 11 11 12 13 13 15 15 16 16 17 19 19 17 16 16 14 14 15 15 15 15 14 14 14 13 14 13 14 16 18 18 18 17 17 18
11 12 14 16 18 20 21 24 30 35 34 30 27 25 23 23 22 20 19 18 17 16 14 14 14 13 13 12 11 11 11 12 13 15 16 16 15 16 17 17 15 15 14 14 14 14 15 15 15 15 16 15 14 14 14 15 17 18 18 18 17 17 18
9 11 13 14 16 18 22 28 33 35 33 28 26 25 23 22 22 22 21 20 18 17 15 15 15 14 13 12 12 11 11 12 13 14 16 16 15 16 16 14 13 13 14 14 14 14 14 15 15 15 15 15 14 15 15 15 18 19 20 19 18 17 17
6 9 10 12 15 18 22 29 33 33 30 26 24 24 23 22 23 24 22 21 20 19 17 16 16 15 13 12 12 11 11 12 13 14 15 15 15 14 14 13 13 13 13 14 14 14 14 14 15 15 15 15 15 15 15 15 17 19 20 20 18 17 17
6 7 9 12 14 17 22 28 31 29 26 24 22 22 22 22 24 25 24 23 22 20 19 18 17 15 13 12 12 11 11 12 14 15 15 14 14 13 13 13 13 13 13 14 14 14 14 14 16 16 15 16 17 16 17 17 17 18 20 19 18 17 17
8 8 10 12 14 18 23 27 29 27 25 25 23 21 21 23 25 26 26 25 24 21 20 20 19 15 13 12 11 11 12 14 15 15 15 14 13 13 13 13 14 14 15 15 15 14 14 15 17 18 17 19 20 19 19 18 16 16 18 18 17 16 17
11 10 12 14 16 19 23 26 28 28 27 25 23 21 22 25 27 28 29 27 24 22 22 21 18 15 13 12 12 12 14 15 16 15 14 14 13 12 14 16 17 18 18 19 18 17 16 17 17 18 18 19 20 21 21 17 14 15 17 17 16 15 16
12 12 14 16 18 20 23 26 28 28 26 22 21 22 25 27 29 31 30 28 25 24 22 20 17 15 14 14 14 15 16 16 16 14 13 13 14 15 18 19 19 19 18 18 19 19 19 19 19 19 19 18 18 19 20 17 14 15 16 16 15 15 15
14 15 16 17 19 22 25 27 28 27 25 23 23 26 29 30 31 32 31 30 29 26 22 19 17 16 17 17 17 17 18 18 16 14 13 14 15 17 20 20 20 20 20 21 21 21 22 22 21 20 19 18 17 18 19 18 15 14 14 14 15 15 15
17 17 17 17 19 22 25 27 27 26 24 22 23 28 30 31 30 31 31 32 31 27 24 22 20 19 18 18 19 19 18 17 15 14 15 16 16 17 19 21 21 20 21 22 21 22 23 24 22 20 19 19 19 19 19 18 14 12 13 13 15 16 15
17 17 15 13 14 18 22 24 23 23 23 22 23 28 31 30 29 30 31 31 30 29 28 26 23 22 21 19 19 18 17 16 15 16 17 16 16 18 19 19 20 20 19 19 18 19 22 22 21 21 20 21 21 21 21 19 14 13 14 13 14 16 16
17 16 14 12 12 15 17 19 20 21 23 24 26 28 29 28 29 31 31 30 30 30 29 27 24 22 21 18 16 16 16 16 16 17 18 17 17 18 18 17 17 17 17 16 16 17 20 20 19 19 20 21 22 21 20 19 17 15 15 14 13 15 16
16 15 14 13 13 14 14 16 18 19 21 23 24 25 26 27 29 29 29 28 28 27 26 24 22 21 19 15 14 16 18 17 14 13 16 18 18 17 16 15 14 13 14 15 15 16 17 17 16 17 18 20 22 20 18 18 16 14 15 15 15 15 16
14 13 13 13 12 11 11 11 13 14 15 16 18 19 21 22 23 22 22 21 20 21 21 20 20 18 16 15 15 16 17 18 16 13 13 14 14 13 12 12 12 12 13 14 13 13 14 14 14 14 14 17 18 17 16 15 15 14 17 17 15 15 15
13 12 12 11 10 9 9 8 9 9 10 12 14 16 18 17 14 13 13 13 13 14 16 17 17 16 14 14 15 15 17 19 18 15 12 10 11 12 12 12 12 12 13 14 15 15 15 13 12 13 14 15 16 16 15 15 16 18 20 20 17 16 16
12 11 10 10 9 9 9 9 9 10 12 14 16 17 17 14 10 9 10 10 12 14 13 13 15 14 12 12 12 12 14 15 13 11 12 12 12 13 15 17 17 16 17 20 22 22 19 15 14 16 17 17 17 18 18 19 20 20 20 20 19 18 16
11 10 9 8 8 9 10 11 11 13 14 15 15 15 14 13 11 8 8 10 13 14 12 12 13 12 10 9 9 10 11 11 10 12 15 17 14 12 14 19 21 19 21 24 24 21 18 16 16 19 19 17 16 18 19 19 20 20 19 19 18 17 16
11 9 8 8 9 10 11 12 13 13 13 13 13 12 11 11 10 7 8 12 14 13 12 13 12 9 9 10 11 12 14 14 13 13 15 16 14 11 11 15 19 19 19 20 20 18 17 17 17 18 18 15 14 17 18 17 17 18 18 17 16 14 13
9 8 8 9 11 11 12 12 11 11 10 9 9 9 7 7 7 6 7 10 12 12 12 13 11 9 10 11 11 13 15 15 14 13 13 12 12 10 9 12 17 17 16 17 17 17 16 16 16 16 16 14 14 15 16 15 15 16 16 15 13 12 11

ECMWFFLT1_850_spd_009.txt.gz
Wind_Speed
27 27 28 27 28 27 26 27 28 27 26 26 26 25 22 20 18 14 12 10 7 6 5 4 4 4 4 6 6 6 6 6 6 5 5 5 6 7 6 7 8 9 10 10 11 11 12 13 13 13 13 14 14 13 13 14 14 14 14 14 15 15 15
26 27 28 28 28 28 28 29 29 28 27 27 27 26 23 21 19 15 12 10 8 7 6 6 5 4 4 6 6 6 6 6 6 6 5 5 6 6 6 8 9 9 9 10 11 12 11 11 12 12 13 13 13 13 13 13 14 15 15 15 15 15 16
26 27 28 29 29 30 31 31 30 29 29 28 28 27 25 23 20 16 14 11 9 9 8 8 7 5 4 5 6 6 6 6 6 6 5 6 6 6 7 8 8 9 9 10 11 11 11 11 11 12 12 12 12 13 13 13 14 16 16 16 16 16 16
24 26 27 28 28 29 31 32 32 30 29 28 29 28 26 24 21 17 15 12 11 11 10 10 8 6 5 5 6 6 6 6 6 6 6 7 7 7 7 7 8 9 9 10 10 11 10 10 11 11 12 12 13 13 14 14 15 16 16 16 16 16 15
21 25 27 27 28 28 31 32 32 31 30 28 29 28 27 25 22 18 16 14 13 12 11 10 8 7 6 6 6 6 6 6 6 6 6 7 7 7 7 7 8 9 10 10 10 10 10 11 11 11 12 13 13 14 15 15 15 15 16 16 15 15 15
19 24 26 28 29 30 31 32 31 30 30 29 29 29 28 25 22 19 18 15 14 14 13 11 9 8 7 7 7 7 6 6 7 7 7 7 7 7 8 8 9 9 10 11 11 12 11 12 12 12 12 14 14 14 15 15 15 15 16 16 15 15 15
18 22 26 27 28 29 30 32 32 30 29 29 29 29 27 25 22 20 18 17 15 14 13 12 10 9 8 8 8 8 7 7 6 7 7 7 8 8 9 9 9 10 11 11 12 13 13 13 13 13 13 14 14 14 15 15 15 16 16 16 15 15 16
16 20 24 26 26 25 27 30 31 30 29 29 29 29 27 25 23 21 20 18 16 15 13 11 11 11 10 9 8 8 7 7 7 8 8 8 9 9 9 9 10 10 11 12 12 13 14 15 15 14 13 14 14 14 15 15 15 16 16 16 16 16 17
14 19 22 24 24 24 25 28 30 30 30 30 30 29 28 26 24 22 21 18 16 15 13 11 11 11 11 11 9 7 8 7 8 8 8 9 9 9 9 9 10 11 11 11 12 13 14 16 16 15 14 14 14 15 15 16 16 16 17 16 17 19 19
13 17 20 23 25 26 27 28 29 31 31 31 30 30 29 27 25 23 21 19 16 15 14 12 10 11 12 11 8 7 8 8 8 8 8 9 9 9 9 9 10 10 10 11 12 13 13 15 17 16 16 16 15 16 16 16 16 17 17 16 17 20 21
12 16 19 22 26 28 29 29 30 33 34 33 32 31 30 28 26 24 22 20 16 15 14 13 11 10 11 10 8 8 9 8 8 8 9 9 9 10 10 11 11 11 11 12 12 13 13 15 15 15 17 17 17 17 17 17 17 17 17 16 16 19 21
11 15 18 21 25 28 30 31 33 34 36 36 33 32 31 29 27 24 23 20 16 14 13 12 11 11 11 9 8 8 9 9 9 9 9 10 10 10 11 11 11 11 12 12 12 13 14 15 15 16 17 18 19 17 16 17 17 16 17 18 17 18 21
13 15 17 20 23 26 28 31 33 34 36 36 34 33 32 30 27 25 23 20 16 14 13 13 12 12 11 9 8 9 10 9 9 9 9 10 10 11 11 11 11 12 14 14 13 14 15 15 16 17 17 18 19 17 15 15 15 14 15 17 18 18 20
15 16 18 20 23 25 27 29 30 32 34 34 33 33 32 30 28 25 22 19 15 14 13 12 13 13 11 9 8 9 10 9 10 10 10 11 11 11 11 11 12 14 14 14 14 14 15 16 16 17 18 18 18 17 16 16 15 14 14 16 17 18 20
15 17 19 21 23 26 28 28 29 31 32 33 33 34 33 30 27 24 20 17 15 14 14 13 13 13 10 9 9 9 9 10 10 10 10 11 12 12 12 12 13 14 14 14 14 15 16 17 17 17 18 17 17 16 17 16 14 14 15 15 17 19 20
15 17 19 21 23 26 27 28 29 30 31 32 33 36 34 29 27 25 22 18 17 16 15 14 15 12 9 9 9 9 10 10 10 11 11 11 11 12 13 13 14 15 14 14 14 15 17 18 17 17 17 16 16 17 17 16 15 16 16 16 17 19 21
14 16 18 20 23 25 27 29 28 29 32 33 35 38 34 30 30 29 22 18 18 17 15 15 15 11 9 9 10 10 10 10 11 11 11 12 12 13 13 14 16 17 16 15 15 16 17 17 17 16 16 16 16 16 16 15 15 18 18 17 18 19 20
13 14 16 18 21 23 26 29 29 31 33 32 36 39 34 32 32 25 18 19 19 17 16 16 14 9 8 9 10 10 11 11 11 12 12 13 13 13 14 15 16 17 16 15 15 16 16 16 16 16 16 16 15 15 15 15 16 18 18 17 18 19 19
14 14 14 16 19 21 24 26 28 31 32 32 36 37 34 35 31 19 17 22 21 17 16 16 13 9 9 10 10 11 12 12 12 12 13 13 13 14 14 15 15 15 14 14 14 14 15 15 16 16 16 16 15 14 15 16 16 17 18 18 19 19 19
13 11 12 14 17 19 21 23 24 27 29 31 33 33 34 36 29 20 21 24 21 19 19 17 13 11 11 12 12 13 13 13 13 13 13 13 13 14 14 15 15 14 13 13 13 14 14 14 15 15 15 16 16 16 15 16 16 17 19 20 21 21 22
10 10 11 13 15 18 19 20 22 24 27 29 30 32 35 33 25 21 25 25 21 21 21 18 15 13 13 14 14 14 15 14 14 13 12 12 12 13 14 15 15 13 12 13 12 12 13 13 13 14 15 16 18 18 16 16 17 17 18 20 22 23 24
8 9 11 12 15 17 18 19 20 22 25 28 29 30 30 27 23 25 26 23 20 21 21 20 17 15 15 16 16 16 16 15 14 13 12 12 12 13 14 14 14 13 13 12 12 13 13 13 14 16 18 19 20 19 18 18 18 17 17 18 21 23 25
6 8 10 11 13 15 16 17 19 21 25 27 28 28 26 25 25 24 22 21 21 21 22 21 20 18 18 18 18 18 17 16 15 13 13 12 13 13 13 14 14 13 12 13 14 15 14 15 15 16 18 20 20 19 18 19 19 18 19 19 19 20 23
6 8 10 11 12 14 15 16 18 22 25 27 27 26 25 24 22 20 19 21 22 22 22 22 22 22 21 20 20 19 17 16 14 13 13 13 13 13 12 13 14 13 14 16 17 16 15 15 15 15 15 17 18 19 20 20 19 19 19 18 18 18 21
7 9 10 12 13 15 16 18 19 21 24 26 27 25 24 23 21 19 20 22 23 22 23 23 23 23 22 20 19 17 16 15 14 14 14 13 13 12 13 14 15 15 16 18 17 15 14 14 14 14 14 14 16 19 19 18 18 19 19 18 17 17 18
10 11 12 12 13 15 17 19 21 23 24 26 26 24 22 21 20 20 22 23 23 23 23 23 23 21 19 18 17 16 16 15 14 14 14 13 13 12 13 14 15 15 16 16 15 14 14 14 15 15 15 15 17 16 15 15 18 20 20 19 18 17 17
11 11 12 13 14 16 18 19 21 23 24 24 25 24 20 19 19 21 22 23 23 23 23 22 20 19 18 18 17 16 16 15 15 15 14 14 13 12 13 14 15 15 15 16 15 14 15 16 17 16 15 16 15 13 12 15 19 19 19 17 16 16 17
12 12 13 14 15 17 18 19 20 21 21 21 22 22 19 17 18 20 22 22 24 25 24 20 18 18 18 18 17 17 17 17 16 15 14 14 13 13 15 16 17 17 16 16 16 16 16 19 19 17 15 15 14 11 12 16 18 17 16 15 13 14 16
14 15 15 16 17 18 18 19 20 21 20 18 18 18 16 16 17 19 21 22 25 26 23 20 19 19 19 19 20 21 20 19 17 16 15 15 14 15 16 16 16 16 16 17 17 17 17 17 17 15 14 14 12 11 12 15 17 15 15 14 12 12 14
15 16 16 16 17 18 17 18 20 19 17 15 13 13 14 16 18 20 22 23 23 23 21 19 19 20 21 23 25 23 21 20 19 18 17 16 15 16 16 15 15 16 17 17 18 17 16 14 14 13 13 13 12 11 11 13 14 14 14 14 13 12 14
14 15 14 13 15 17 16 15 16 15 14 13 12 13 16 18 18 19 21 22 21 19 19 20 21 24 26 28 27 25 22 21 19 17 15 14 13 13 13 13 14 15 16 16 17 17 15 13 12 13 12 12 13 12 11 11 13 13 14 15 14 14 16
14 14 13 12 13 15 14 12 12 12 11 11 13 16 17 19 19 18 18 18 17 16 18 20 22 25 27 28 28 25 20 18 17 15 13 12 12 12 12 13 14 15 16 16 16 16 14 12 12 12 13 15 15 12 10 11 13 13 15 16 17 18 19
15 13 13 12 13 13 12 10 10 10 9 10 12 12 12 11 12 14 15 15 12 13 16 19 19 19 20 20 21 19 17 17 16 15 13 11 11 12 11 11 12 15 17 18 17 16 14 13 14 14 15 17 16 11 8 9 10 12 15 17 18 19 18
15 14 13 13 13 12 11 10 9 8 9 10 10 10 11 9 7 9 11 10 9 10 14 15 14 14 14 14 14 14 14 13 13 13 12 11 11 11 11 11 12 15 18 20 20 19 18 18 17 16 16 16 15 10 7 7 8 11 16 18 17 17 16
15 15 14 14 13 12 12 11 10 9 10 11 10 10 12 11 10 9 8 8 8 9 11 11 11 12 13 12 11 12 12 11 10 11 11 9 9 12 15 16 16 18 20 23 23 22 22 23 22 20 17 14 13 12 11 11 12 14 17 18 17 16 15
13 13 13 13 12 12 11 11 10 9 9 9 9 10 10 11 12 12 9 8 7 7 9 10 11 11 12 12 12 12 11 10 10 10 9 9 10 14 18 19 17 17 20 22 21 21 22 23 23 22 19 14 14 17 17 15 16 16 16 16 16 15 14
12 12 12 12 11 11 10 9 8 7 7 7 8 9 9 8 10 10 8 7 8 8 9 11 11 11 12 13 14 14 13 12 11 11 11 13 13 13 14 15 15 16 18 20 21 20 20 19 19 19 17 14 14 18 18 15 13 14 15 16 16 14 13
12 12 12 11 10 10 9 8 6 6 7 7 8 9 7 4 5 7 7 7 8 8 9 11 12 13 13 13 13 13 12 12 12 12 12 12 12 11 10 11 14 17 19 19 19 19 18 17 17 17 16 14 14 15 15 13 11 12 14 15 15 13 12

ECMWFFLT1_850_spd_015.txt.gz
Wind_Speed
34 39 43 43 43 43 43 43 43 41 40 40 39 39 38 36 35 34 31 29 26 24 23 21 17 15 14 11 7 4 2 1 2 3 3 3 3 4 4 5 6 6 6 6 6 5 6 7 7 7 7 7 8 9 9 9 10 10 11 11 10 10 10
34 37 41 42 41 42 43 44 43 43 42 41 41 40 39 38 37 35 33 30 27 25 24 22 18 16 14 11 6 3 2 2 2 2 3 3 3 3 3 4 5 6 6 5 4 5 6 6 7 7 8 8 8 9 10 10 10 10 11 11 11 11 11
35 35 40 43 41 41 43 44 44 44 43 43 43 42 41 40 39 37 35 33 29 27 25 23 20 17 15 11 7 4 3 2 2 2 2 3 3 3 3 5 6 6 6 4 4 6 7 8 9 8 8 8 9 10 10 10 10 10 10 11 11 11 11
35 35 39 43 42 40 41 44 45 44 44 44 44 43 42 41 40 38 35 33 31 29 27 24 21 19 16 10 7 5 4 3 2 2 2 3 3 3 5 6 7 7 6 5 6 8 10 10 8 8 8 9 9 10 10 10 10 10 11 11 12 11 12
34 33 37 42 41 40 40 43 45 44 44 44 44 44 42 41 40 37 36 34 31 29 27 24 22 20 16 11 7 6 4 3 3 3 2 3 3 4 5 6 7 6 4 5 6 8 10 9 8 9 9 9 9 10 10 10 10 10 11 11 12 12 12
33 31 36 41 42 40 41 42 44 45 45 45 44 44 43 41 40 38 36 35 32 30 27 24 23 21 16 12 8 6 4 3 3 3 3 4 4 4 5 5 5 3 3 4 5 7 8 9 10 13 12 10 9 10 10 11 11 11 11 12 12 12 12
35 33 34 38 41 41 41 42 44 44 44 43 43 43 43 42 40 39 38 36 34 32 29 26 24 22 16 12 9 7 5 3 3 4 5 5 4 4 5 4 3 1 3 5 6 7 8 10 12 14 14 12 13 13 13 13 12 12 12 12 13 13 13
33 33 32 33 37 40 42 43 43 43 42 41 42 42 43 42 41 39 39 38 36 33 31 28 26 22 17 13 10 7 5 4 4 5 6 5 5 4 3 3 2 1 3 6 7 8 10 11 12 13 13 13 14 15 16 17 16 15 15 14 14 14 15
32 33 31 31 33 37 41 43 43 43 42 42 42 42 42 42 41 41 40 39 37 35 32 30 27 23 18 13 10 7 6 5 6 7 7 6 5 4 2 1 2 0 4 7 9 11 11 11 12 13 13 13 14 15 17 18 19 19 18 16 15 15 16
26 30 32 31 31 33 38 41 41 42 42 43 43 42 43 42 41 41 40 39 38 37 35 32 29 24 20 15 11 9 7 6 6 7 7 6 4 3 3 2 1 2 6 8 9 9 9 10 12 12 12 12 13 14 16 18 19 20 21 19 16 15 16
17 23 30 33 32 31 33 37 41 43 44 44 44 43 42 42 41 41 40 39 39 39 37 34 31 27 22 16 12 10 8 6 7 6 6 6 5 4 4 4 5 6 8 9 10 10 11 13 15 14 13 13 13 14 15 16 18 19 21 20 16 14 15
15 18 25 30 31 30 32 37 40 43 45 45 44 43 42 42 42 41 40 39 38 39 37 35 32 28 23 17 14 11 9 7 7 6 6 6 5 4 4 5 8 10 11 13 14 14 15 17 18 17 16 15 15 15 16 17 18 20 22 20 15 14 15
18 20 24 26 25 24 29 38 41 43 45 45 44 44 43 43 43 42 41 40 39 38 37 35 32 28 23 17 14 11 8 7 5 5 7 7 5 3 4 5 7 9 10 12 13 15 17 19 18 17 16 15 16 17 17 18 19 20 19 17 15 16 16
23 23 24 26 25 23 26 34 41 43 44 45 45 45 44 44 43 42 41 40 39 38 36 34 33 28 22 16 13 10 9 8 5 5 8 8 5 3 4 7 8 8 9 11 11 13 16 16 15 15 14 15 16 15 14 15 17 17 16 15 16 17 16
25 24 24 25 27 27 27 29 36 42 44 44 44 44 45 45 44 42 41 40 40 38 36 35 33 29 22 16 13 11 11 11 8 7 9 8 6 4 6 8 8 8 8 8 10 11 12 12 13 13 14 15 14 13 14 16 17 16 15 15 16 16 16
19 23 26 27 27 28 29 29 31 37 41 43 42 43 45 46 45 43 41 42 41 39 37 35 34 31 22 16 14 11 12 15 13 11 10 9 6 5 6 7 7 6 6 7 9 10 11 11 13 14 14 14 14 14 15 17 16 15 15 16 17 17 17
9 12 18 25 28 28 29 29 30 33 38 40 41 42 44 44 44 43 43 44 43 41 39 36 35 30 20 16 14 10 13 18 17 14 12 10 8 7 7 6 6 6 7 8 9 9 10 12 13 14 14 14 15 16 16 16 16 16 16 17 18 18 18
3 4 5 12 22 29 29 29 31 32 34 37 39 41 42 42 41 40 38 37 36 38 39 37 36 31 21 17 16 11 12 19 20 16 13 11 10 10 8 7 8 8 9 11 11 11 11 12 13 15 15 15 16 17 17 17 16 17 18 18 19 20 19
3 6 7 8 12 22 27 28 29 30 31 33 35 38 40 39 39 37 35 33 33 37 40 40 39 33 23 16 13 11 13 20 21 16 13 12 12 12 11 11 11 11 11 12 12 13 14 14 15 16 16 16 17 18 18 19 19 19 20 20 20 19 18
6 9 10 11 12 14 19 23 26 28 30 31 32 35 38 39 41 42 42 42 42 43 44 42 38 32 24 15 11 13 18 23 21 16 13 13 14 15 15 15 14 13 13 13 14 15 16 17 18 18 17 17 18 19 20 20 20 20 20 19 18 18 18
6 7 9 12 13 14 15 18 22 28 30 30 31 35 39 41 43 44 44 44 44 44 44 42 36 29 24 17 14 18 24 26 22 17 15 15 16 17 18 18 17 16 14 14 14 15 17 19 19 18 18 18 19 20 21 21 21 21 21 19 19 19 19
9 10 12 13 12 12 14 16 19 26 31 30 32 36 39 41 42 42 42 41 41 41 41 40 35 30 25 21 21 25 29 28 23 19 18 18 19 20 20 21 20 18 17 16 15 15 17 19 20 19 19 19 19 19 20 20 21 21 20 19 19 20 20
7 8 10 11 10 10 13 15 16 22 29 31 32 35 38 40 39 39 39 39 39 39 37 35 33 31 29 27 26 28 30 29 26 22 20 20 21 22 23 22 21 19 18 16 16 16 18 20 21 19 18 17 16 17 18 19 20 20 19 18 19 20 20
5 6 6 7 8 9 12 12 12 17 25 29 32 35 38 40 39 36 36 37 38 38 36 35 35 34 32 29 27 28 30 29 27 24 22 23 24 25 24 23 22 20 18 17 17 18 18 20 21 19 16 15 17 19 21 22 22 21 21 22 20 20 20
6 5 5 6 7 9 10 11 10 14 20 25 31 35 37 38 37 32 31 34 36 36 35 34 35 35 32 29 28 29 30 29 27 25 25 26 26 26 25 24 22 20 18 17 17 16 17 20 22 20 18 18 21 23 23 24 24 23 23 22 21 20 20
7 6 7 6 6 8 10 11 12 15 18 23 28 31 32 34 33 28 27 30 33 34 34 33 33 34 32 30 31 33 32 29 27 26 26 26 26 25 25 24 22 19 18 17 16 16 18 22 23 22 21 21 22 23 24 26 27 25 23 20 19 20 20
8 10 11 9 9 9 10 11 13 16 19 20 22 24 25 27 27 24 23 25 28 30 29 29 31 33 32 32 34 34 31 28 27 26 25 26 26 25 24 24 22 20 18 17 17 19 22 23 23 23 23 22 21 22 24 25 25 23 20 18 17 18 19
10 11 11 10 9 9 9 9 12 16 19 19 19 20 21 20 19 17 18 22 23 23 24 26 30 32 32 32 32 30 28 28 27 26 26 26 26 24 22 21 22 23 21 18 19 22 23 23 24 25 24 24 22 21 21 21 20 19 17 15 16 17 18
9 10 9 8 8 9 9 9 10 13 19 21 19 18 18 17 15 14 16 18 18 17 20 23 26 27 28 28 28 27 26 27 27 27 26 25 24 22 21 20 22 25 24 20 21 22 23 24 26 25 23 22 21 19 18 18 18 16 15 15 16 18 17
10 11 10 9 11 13 14 13 11 12 19 22 19 18 18 17 15 15 16 16 15 16 19 18 17 17 18 20 23 24 24 25 25 25 24 23 22 21 22 23 25 26 23 20 20 22 24 24 23 21 19 18 17 16 18 18 16 15 15 16 18 18 15
14 13 10 11 13 14 13 13 11 13 20 23 20 20 18 16 15 17 18 18 17 19 20 16 13 12 12 14 18 21 22 23 23 23 23 23 22 21 23 25 25 24 22 20 18 20 21 20 18 17 17 16 15 16 17 16 16 16 17 18 18 15 13
16 13 11 12 14 13 13 13 14 18 21 23 22 22 19 17 18 20 21 20 19 19 18 16 14 13 13 13 15 17 18 19 20 21 21 21 21 22 24 24 22 20 18 16 15 17 17 16 16 16 15 13 14 15 15 15 17 18 18 17 15 12 13
15 13 12 13 13 15 15 16 20 22 20 21 23 24 22 21 21 20 19 18 16 15 14 12 12 12 12 11 11 12 14 15 17 19 19 19 19 19 19 18 17 15 14 13 13 15 16 15 16 16 14 13 15 17 16 16 18 18 16 16 15 14 15
14 14 14 14 15 16 17 19 25 27 20 19 23 25 24 23 20 16 14 13 11 9 8 8 8 8 8 7 7 9 11 13 15 16 16 16 15 13 12 12 13 12 11 12 13 14 14 14 14 14 14 15 17 18 18 18 18 16 14 15 15 15 14
11 10 11 12 12 13 16 20 26 27 20 15 20 25 23 20 17 13 10 10 9 8 7 7 6 7 7 8 9 11 12 13 13 13 14 14 12 11 11 11 11 11 10 10 11 12 12 12 11 13 15 17 17 18 17 17 16 14 13 13 13 12 11
7 7 7 7 8 11 17 22 23 22 17 12 15 20 21 19 16 13 9 8 9 8 8 7 6 7 8 8 10 12 13 13 12 12 13 13 13 12 13 12 12 12 12 12 12 13 12 11 12 14 15 16 15 15 14 13 13 13 13 13 12 10 9
7 7 6 6 8 11 17 21 20 20 18 12 9 12 15 16 14 10 8 9 10 9 8 7 6 6 6 8 10 12 13 13 11 10 11 13 14 14 13 13 14 14 13 12 13 13 13 13 14 15 15 14 13 12 11 11 12 12 12 11 9 8 7
6 7 8 9 10 11 13 16 17 20 21 17 11 7 6 7 10 12 12 12 12 10 7 6 5 5 5 8 13 14 14 13 11 9 10 13 14 14 13 12 12 13 12 12 13 13 14 14 14 15 14 11 9 8 8 8 8 8 8 7 6 6 6

ECMWFFLT1_850_spd_021.txt.gz
Wind_Speed
40 40 42 43 45 46 47 48 47 47 45 43 42 40 39 39 38 38 37 37 37 36 35 34 33 31 29 27 25 22 20 18 18 16 15 14 14 15 16 15 14 13 13 12 12 11 10 10 9 8 7 6 6 7 7 6 5 6 6 6 6 6 7
37 40 41 43 45 47 48 47 47 47 45 44 43 42 41 41 40 39 39 39 39 38 37 35 34 32 31 28 26 24 22 20 19 17 16 15 15 16 16 15 14 13 12 12 11 11 11 11 9 8 7 7 7 7 6 6 7 7 7 7 7 7 7
38 41 42 44 47 49 49 47 47 47 46 45 44 43 43 42 42 41 40 41 40 39 38 37 35 34 32 30 28 26 24 22 20 18 17 16 16 16 15 14 14 13 12 12 11 10 10 10 9 8 7 7 6 6 6 7 8 8 9 8 8 8 8
40 43 45 46 47 48 48 47 48 48 47 46 44 44 44 43 43 42 42 42 42 41 40 39 37 36 34 32 30 29 27 23 21 19 18 17 16 15 15 15 15 14 12 10 9 9 8 8 8 6 5 4 5 5 6 7 7 8 8 9 9 9 9
39 41 43 44 45 45 46 47 48 48 48 47 45 44 44 43 44 44 43 43 43 42 41 40 39 37 34 33 31 30 28 24 21 20 18 18 17 16 15 15 14 13 11 9 9 9 9 9 7 5 3 3 3 3 3 3 4 4 5 6 7 8 9
38 40 41 43 44 45 46 47 48 49 49 48 46 46 45 44 45 45 45 44 44 43 42 41 40 38 36 34 32 31 28 25 22 20 19 19 18 16 15 14 14 12 11 10 10 10 10 9 7 5 5 5 4 3 2 2 2 3 5 6 7 8 9
40 41 42 44 45 46 47 48 48 49 49 48 47 47 47 46 46 45 46 45 45 45 44 44 42 40 38 36 33 31 29 26 23 21 21 20 18 16 15 15 14 13 12 12 11 10 9 8 7 6 6 6 5 4 4 4 4 5 7 9 10 11 11
42 43 44 45 46 47 47 48 48 48 48 48 48 48 48 48 47 47 46 46 46 46 46 45 44 42 40 37 32 29 28 26 24 23 23 21 19 18 16 16 14 14 14 13 12 10 9 7 7 6 6 6 6 6 6 6 7 7 9 12 13 13 13
42 44 47 47 47 47 47 48 48 47 47 47 49 50 49 49 49 49 48 47 47 47 47 46 45 44 42 37 31 28 29 29 26 25 24 23 21 19 18 16 15 15 15 14 13 11 9 8 8 8 8 8 8 8 8 9 10 10 12 13 14 15 15
42 45 47 47 46 46 45 45 44 43 45 47 49 50 50 50 50 50 49 49 48 48 48 47 46 46 44 38 32 31 31 31 29 27 26 23 21 20 18 17 16 16 15 15 14 12 10 9 10 10 11 10 10 10 10 11 12 13 14 15 16 17 17
43 45 46 46 44 43 42 41 41 43 45 47 48 50 50 51 51 51 51 50 50 49 48 48 48 48 45 38 32 32 32 32 31 29 26 23 22 21 19 17 16 16 15 15 14 12 10 10 11 11 11 10 10 11 12 13 14 16 17 17 18 18 18
43 44 45 45 44 42 40 41 43 45 46 47 48 49 50 51 51 51 52 51 51 50 49 49 50 49 46 40 34 34 35 34 33 30 27 24 23 21 19 18 16 16 16 14 12 12 12 12 12 12 11 11 11 12 13 15 16 17 18 19 19 19 17
41 43 44 45 44 43 42 43 44 44 45 46 47 48 49 50 50 51 52 51 50 49 48 49 50 49 48 43 36 35 37 36 33 30 27 25 23 21 20 19 17 17 16 14 12 13 14 13 13 12 12 12 13 14 15 16 17 17 18 18 18 17 15
36 38 41 43 43 43 43 42 42 42 44 45 46 47 49 49 50 50 50 49 47 47 47 49 50 50 49 45 36 34 38 39 34 31 28 25 23 21 20 20 19 17 16 15 14 15 15 14 13 13 14 14 15 16 17 17 17 17 17 16 15 14 14
32 35 39 41 42 43 42 41 40 40 41 43 45 46 47 48 49 48 47 46 46 47 49 50 50 51 49 45 39 36 41 43 38 32 28 25 23 22 20 20 17 13 12 15 16 17 16 15 15 15 16 16 17 17 17 16 16 15 14 13 13 13 14
34 38 40 41 41 41 40 39 37 36 37 40 42 44 46 47 48 47 46 47 47 48 50 51 51 51 49 48 46 43 44 44 38 32 28 25 23 21 21 21 14 8 12 18 18 18 17 16 16 17 17 17 18 18 17 16 14 12 11 11 12 13 14
36 37 38 39 39 38 36 35 35 35 36 37 39 41 43 45 46 45 46 47 48 49 50 50 51 51 49 50 48 43 41 38 32 29 27 23 22 20 20 21 16 12 17 22 20 18 18 17 18 18 18 18 19 18 17 15 12 11 12 12 13 14 16
35 35 36 37 36 34 32 33 34 36 36 36 37 38 40 42 44 44 45 46 47 48 48 50 50 48 46 47 42 34 32 30 28 29 27 21 21 20 15 18 20 19 21 23 21 20 19 19 20 19 19 19 19 18 16 14 13 14 15 15 15 16 17
34 33 33 33 31 29 30 31 33 34 34 34 34 36 37 40 41 43 44 44 44 46 47 47 45 41 43 44 36 28 28 28 29 32 28 22 23 18 10 15 24 25 24 24 22 21 20 20 20 20 21 21 20 18 16 14 14 15 17 19 19 19 20
30 29 29 28 27 27 27 26 25 25 24 24 25 28 31 35 37 39 41 41 42 43 44 43 41 42 44 44 37 30 30 31 34 35 31 27 25 19 15 19 25 27 27 25 23 22 21 21 21 21 22 22 20 18 16 15 14 16 17 19 21 22 22
25 25 25 23 22 21 19 16 13 11 11 13 16 18 21 25 30 34 37 39 40 42 43 43 44 46 47 46 41 34 32 36 39 37 34 31 26 21 23 25 26 27 28 26 25 24 22 21 21 22 23 22 20 18 17 15 14 16 17 19 20 21 22
20 20 19 18 17 14 11 8 6 4 5 7 10 12 15 18 21 27 32 36 39 41 43 44 46 48 49 48 42 34 32 39 40 35 32 31 26 22 23 26 26 27 28 27 27 25 23 22 23 23 22 21 20 19 18 16 16 17 19 20 21 21 21
16 15 15 14 13 10 8 8 6 4 3 4 6 8 11 13 17 22 27 33 37 40 42 45 47 48 50 48 41 32 33 39 40 37 34 33 28 24 23 24 25 26 27 28 27 25 25 25 24 24 23 22 21 20 19 18 18 18 20 21 22 22 22
14 13 12 12 11 9 9 9 7 5 3 4 6 8 9 11 14 19 25 30 34 38 41 44 46 49 50 47 39 32 33 37 41 41 40 36 30 24 21 21 23 25 27 27 25 24 25 26 26 25 24 23 22 21 21 21 20 20 21 22 23 24 24
14 14 13 12 11 9 9 9 8 7 5 5 7 8 9 10 13 16 22 27 31 35 39 42 45 48 48 43 34 30 32 37 41 41 39 36 30 23 20 19 19 23 26 25 24 24 26 27 26 25 23 23 22 21 22 23 22 21 21 22 24 26 25
15 15 13 11 10 9 8 8 7 5 5 6 7 8 9 9 11 14 18 23 27 31 34 38 42 42 40 34 29 29 34 39 40 37 34 32 28 24 22 19 18 21 24 24 24 25 27 28 27 26 26 25 23 22 24 25 24 23 23 24 25 25 23
14 12 10 8 8 7 6 5 5 6 7 7 7 8 9 9 10 13 17 21 25 28 31 34 37 37 34 29 27 30 37 40 38 34 31 29 25 23 22 21 20 20 21 23 25 27 29 28 27 28 29 26 24 25 25 25 26 25 25 25 24 22 20
7 6 5 5 5 4 5 6 7 8 8 8 7 8 9 10 11 13 16 21 24 27 29 31 32 33 32 28 25 30 39 41 37 35 32 27 23 22 22 22 21 20 20 22 25 28 29 28 28 29 30 27 25 25 24 23 25 25 24 23 21 19 18
3 2 1 2 4 5 7 8 9 10 9 8 8 9 10 11 12 13 16 19 23 26 26 26 28 31 30 25 23 30 40 40 36 36 34 27 23 22 22 22 21 20 21 22 25 28 29 28 28 30 30 27 24 23 22 23 24 23 21 20 19 18 17
4 3 5 6 6 7 8 9 11 11 11 9 9 10 10 11 12 12 14 17 22 24 22 21 26 30 26 19 19 28 38 38 36 37 34 28 25 23 22 21 20 21 23 24 26 28 28 28 29 30 28 24 21 21 22 22 21 19 18 18 18 18 17
4 3 5 6 7 9 10 11 12 12 12 11 10 10 10 11 11 11 13 16 18 19 17 18 23 26 22 17 18 26 33 34 34 35 33 29 26 24 21 20 20 22 24 26 27 28 28 28 29 28 24 21 21 20 19 18 17 17 17 18 18 18 18
5 3 4 5 7 9 10 11 13 13 13 12 11 11 11 10 10 11 13 14 15 16 15 16 21 23 19 17 18 23 29 32 32 30 28 26 25 22 21 21 22 23 25 26 27 27 26 26 26 25 22 21 19 16 15 15 16 17 17 18 19 19 18
6 5 5 5 7 9 9 10 12 13 13 13 13 12 12 11 11 12 13 13 14 14 13 13 16 18 18 18 17 20 27 29 25 21 21 22 23 22 22 23 23 24 25 25 24 23 23 23 23 22 20 18 15 13 13 15 17 18 19 20 20 20 19
7 6 5 5 6 8 9 9 10 10 11 12 13 13 13 13 12 12 14 14 13 12 11 12 15 17 18 18 17 19 22 21 18 18 21 24 23 24 25 25 24 24 23 22 21 20 20 20 20 19 18 16 14 13 15 16 18 19 20 21 21 20 19
6 5 4 4 5 6 7 8 8 9 10 12 14 15 15 14 13 15 16 13 10 9 12 15 18 18 16 14 13 16 19 20 21 24 26 25 24 24 25 24 23 22 21 20 19 18 18 18 17 17 17 15 14 15 16 17 18 19 20 20 20 19 18
7 6 6 6 7 7 8 9 10 11 12 14 15 16 15 14 15 16 14 10 8 9 11 13 14 15 15 15 14 17 22 25 26 26 24 23 23 24 23 22 21 20 19 19 18 17 17 17 17 17 17 16 16 16 17 17 18 18 19 19 18 18 17
9 8 8 8 9 9 10 10 11 12 13 15 16 15 14 14 15 15 12 10 10 10 10 11 12 13 16 18 19 21 23 23 21 21 20 22 23 23 21 20 19 18 18 18 17 17 17 17 17 17 17 16 16 15 16 17 17 17 17 17 17 17 16
11 9 9 10 10 11 12 12 12 13 13 14 14 13 12 13 14 13 11 11 13 13 12 11 11 12 15 19 21 21 21 19 19 19 21 22 22 20 19 17 17 17 17 16 16 17 17 17 17 17 16 16 15 15 16 16 15 15 15 14 14 14 13

ECMWFFLT1_850_spd_024.txt.gz
Wind_Speed
37 39 42 43 45 46 47 48 48 47 47 46 45 44 44 43 41 40 38 36 35 35 34 34 34 34 34 34 32 30 28 26 24 23 21 19 17 16 16 16 15 16 16 16 15 14 13 12 11 10 10 9 9 9 9 8 8 8 8 8 9 9 9
35 38 41 43 45 47 48 48 48 48 47 46 46 45 44 44 43 42 39 37 37 37 36 36 36 37 36 35 33 32 30 28 26 25 22 20 18 18 17 16 15 16 16 16 16 15 14 13 12 11 10 10 9 9 10 9 9 9 9 9 9 10 10
36 38 42 44 46 48 48 48 48 48 48 46 46 45 45 44 43 43 41 39 39 39 38 38 38 38 38 37 35 34 31 29 28 26 24 21 20 19 17 17 16 16 17 17 16 15 14 13 12 11 11 11 10 10 10 10 10 9 9 9 10 10 10
37 41 43 45 46 47 47 47 49 50 49 48 46 45 44 44 43 43 42 41 41 41 40 40 40 40 40 39 37 35 33 32 30 27 24 22 20 19 18 18 17 18 18 18 16 15 14 13 12 12 12 12 11 11 11 10 10 9 9 9 9 9 9
38 40 42 43 45 45 45 47 49 50 50 49 47 45 44 43 43 44 43 42 42 42 41 41 41 42 41 41 39 37 35 33 31 28 26 24 22 20 19 18 18 18 18 17 16 15 14 14 13 13 13 12 11 11 9 8 7 6 6 6 5 5 6
36 39 42 43 44 45 47 48 50 51 51 50 48 46 44 44 44 43 44 44 44 44 43 42 43 44 43 43 41 39 37 35 32 30 27 25 23 20 19 19 18 18 18 17 16 15 14 14 14 14 13 12 11 10 8 7 6 5 4 4 4 5 6
35 39 42 43 44 46 47 48 49 50 50 50 48 46 46 46 45 44 44 45 45 45 45 45 45 46 46 45 43 41 38 36 34 31 28 26 23 21 19 19 19 18 17 17 16 15 14 15 15 14 12 11 10 10 9 8 6 5 6 6 7 7 8
35 39 43 44 45 46 47 47 47 48 48 48 47 47 47 47 46 45 45 45 46 47 47 46 47 48 48 47 45 43 40 37 34 31 28 26 23 21 19 19 19 18 17 17 17 15 15 15 15 13 11 11 11 10 10 9 8 7 8 9 9 10 10
33 37 41 43 44 45 45 46 45 45 46 47 47 48 47 47 47 47 46 46 47 48 48 48 48 49 49 48 47 44 41 38 35 31 28 27 24 20 19 20 19 18 18 18 17 16 15 15 14 13 12 12 11 11 11 11 10 10 10 11 12 12 13
31 36 39 41 42 43 42 42 42 43 45 46 47 48 48 48 48 47 47 47 47 48 49 48 49 50 50 49 48 46 43 39 35 32 30 29 25 20 19 21 21 19 19 18 17 17 16 15 14 14 14 13 12 12 12 12 12 12 13 13 14 14 15
32 35 38 39 40 39 40 41 41 42 44 44 45 46 47 47 48 47 48 48 48 48 48 49 51 51 50 50 49 47 44 41 37 34 32 29 24 20 21 23 22 21 19 18 18 18 17 16 15 15 16 15 14 13 14 14 14 14 15 15 15 16 16
33 36 37 38 38 38 39 40 41 41 41 42 43 43 44 46 46 46 47 48 48 48 49 50 50 50 51 50 49 49 46 43 39 33 30 27 22 20 22 24 23 21 20 19 19 19 17 17 16 15 16 16 15 15 15 15 16 16 16 16 17 17 17
33 35 36 36 36 37 38 38 39 39 39 39 40 40 42 43 43 44 45 46 47 48 49 49 49 50 50 49 50 50 45 40 35 32 31 29 26 25 24 25 24 22 20 20 20 19 18 18 15 13 15 17 16 15 16 16 16 16 17 17 17 18 18
29 31 32 33 34 35 36 37 37 37 36 36 36 38 39 40 40 41 43 44 45 47 48 48 49 49 49 49 49 46 42 39 38 39 38 35 33 32 29 27 25 23 21 21 20 19 19 18 16 14 16 18 18 17 17 17 17 17 17 17 17 17 17
29 32 33 33 34 35 35 36 36 34 33 33 33 34 35 36 38 39 41 42 43 44 46 47 48 48 48 48 46 44 45 46 46 46 42 37 36 35 32 29 27 24 23 22 21 18 17 18 18 18 20 20 20 19 18 18 18 17 17 17 16 16 16
32 34 35 35 35 36 36 35 34 32 31 31 30 30 31 32 35 36 38 40 41 42 43 45 47 47 47 46 45 47 50 49 48 48 43 40 38 35 34 32 28 26 25 24 23 18 15 19 22 22 22 22 21 20 19 18 19 18 17 16 16 15 16
34 35 35 36 35 35 35 34 34 33 32 30 28 28 29 30 32 33 36 37 39 40 42 44 45 45 45 45 46 49 49 47 47 46 40 37 35 35 35 33 29 27 26 26 24 18 16 22 27 25 24 23 23 21 19 19 19 18 17 16 16 15 16
33 33 34 34 34 33 33 34 34 33 31 28 27 28 28 29 30 32 34 35 37 39 41 42 43 43 44 45 46 48 47 46 47 45 38 34 33 34 34 32 29 27 28 27 21 16 18 25 28 26 24 23 23 21 19 19 19 19 18 17 15 15 17
30 30 32 33 32 32 32 32 31 30 28 27 28 28 26 26 27 28 29 32 35 37 39 40 41 42 44 45 45 46 45 45 47 45 37 32 32 32 31 32 30 28 29 26 19 18 23 27 27 25 24 23 23 21 20 20 20 19 19 16 14 14 17
29 29 30 31 30 30 29 28 26 25 24 22 20 17 16 16 16 18 21 26 31 34 37 38 39 41 43 44 44 44 42 43 45 42 34 31 32 32 31 30 28 27 28 26 22 24 29 29 27 26 24 23 23 21 20 20 20 20 19 16 14 15 16
27 28 29 29 28 26 24 22 20 17 13 9 6 5 5 7 9 11 15 20 25 30 33 35 37 39 41 42 42 41 41 42 43 38 32 30 33 34 32 30 27 26 27 26 27 30 31 28 27 26 24 23 23 21 21 21 21 20 18 16 16 17 18
28 28 27 25 21 19 15 13 10 8 6 5 4 2 1 2 5 8 11 16 20 24 29 32 35 37 38 39 39 39 41 42 41 35 31 31 36 38 35 32 30 29 27 27 29 31 29 27 27 26 24 23 22 21 22 21 20 19 18 18 18 19 19
23 22 18 14 12 12 12 12 11 11 9 7 6 4 3 3 4 6 8 12 16 21 25 29 32 35 36 37 38 39 40 41 39 33 30 34 40 41 39 37 35 33 29 28 29 30 30 28 27 25 24 23 23 23 22 21 20 19 19 19 21 21 20
12 12 13 15 16 16 15 14 12 11 9 7 5 2 1 2 4 6 8 11 14 17 22 26 30 33 35 36 38 39 39 39 36 30 28 35 42 43 43 42 39 36 33 29 27 28 29 28 26 25 24 24 24 23 23 22 21 20 21 21 21 22 21
15 18 19 19 17 15 13 12 11 10 8 5 3 2 1 1 4 5 7 9 12 15 20 24 28 31 33 35 36 38 39 37 33 27 27 34 42 44 43 42 39 35 31 26 24 25 26 25 25 24 23 24 24 24 23 23 22 21 21 22 21 21 20
20 20 18 17 15 13 11 10 9 8 6 4 2 1 1 2 4 5 6 8 11 14 19 22 25 27 30 32 34 36 36 33 30 26 25 33 42 42 39 38 37 33 25 19 19 21 22 24 25 24 23 23 23 23 24 24 24 23 23 23 22 21 20
16 16 14 14 12 10 9 7 5 5 4 3 2 1 1 3 4 5 6 8 11 14 18 21 23 25 27 29 32 33 32 31 29 25 23 31 39 39 36 35 35 30 22 17 17 18 19 21 22 22 22 22 21 23 24 25 25 25 24 23 22 21 20
16 15 13 12 11 10 9 6 4 3 2 1 1 0 2 3 4 5 7 9 12 15 18 20 21 22 24 26 28 29 29 29 28 24 23 31 37 36 34 34 33 29 23 19 19 19 19 18 18 19 20 20 20 21 22 22 23 24 24 23 21 19 19
17 15 12 11 10 8 7 5 2 1 1 1 2 2 2 3 4 6 7 9 12 15 17 18 19 19 21 23 25 26 26 26 24 21 23 31 37 36 35 35 34 30 25 21 22 22 20 18 17 18 19 18 18 18 18 18 19 21 22 21 19 17 16
15 12 10 8 6 4 3 3 2 2 3 4 4 4 5 5 6 7 8 10 12 14 16 16 16 17 19 21 23 24 25 25 23 20 22 29 36 38 38 38 35 30 27 25 24 23 21 20 18 17 17 17 16 16 15 16 17 18 18 17 16 15 16
12 10 8 6 4 1 1 2 3 3 4 5 5 6 6 7 7 8 9 10 12 12 13 13 13 14 16 19 22 23 25 25 23 20 21 27 34 38 38 35 32 29 27 25 23 22 22 20 19 17 17 16 15 14 15 16 16 17 16 14 14 15 17
11 10 9 7 6 5 4 3 3 3 3 4 5 6 8 9 9 10 10 11 11 11 11 11 11 12 15 17 19 21 23 25 23 21 23 27 32 34 33 30 29 28 26 24 22 21 20 19 18 18 17 15 14 14 15 15 15 14 14 14 14 16 17
8 7 6 6 5 5 5 5 5 4 3 3 5 6 9 10 11 11 12 12 12 11 12 12 12 13 15 15 17 19 22 23 21 20 23 26 29 30 30 29 30 28 26 23 21 19 17 18 18 17 15 14 14 15 16 15 14 14 15 15 16 17 18
8 8 6 5 4 3 4 6 7 6 5 5 6 8 10 12 12 13 13 13 13 13 13 14 14 15 15 15 17 19 21 21 19 20 23 25 26 28 30 31 30 27 23 21 18 15 15 16 16 14 14 14 15 16 16 15 15 15 16 16 17 17 18
8 8 7 4 4 4 5 6 7 7 7 8 9 10 12 13 13 13 14 14 14 14 14 15 15 15 15 17 18 20 21 21 21 22 24 24 25 27 29 29 26 22 19 17 15 14 14 14 14 13 13 14 15 15 15 15 15 16 16 17 17 17 18
5 6 5 5 5 5 5 7 7 8 8 9 10 11 11 11 11 13 14 14 13 13 13 12 13 13 15 18 20 21 22 22 22 23 23 23 23 24 25 23 20 18 17 15 14 13 13 13 12 13 14 15 15 14 14 14 15 16 16 16 16 17 17
2 3 4 5 5 5 6 7 7 8 9 10 11 11 10 9 9 10 11 11 12 12 11 9 10 12 15 18 19 20 20 21 22 21 20 19 19 20 20 19 17 16 15 14 13 12 12 12 13 14 15 15 14 13 14 14 15 15 15 16 16 16 17
1 1 1 1 1 2 4 5 6 8 9 10 11 11 10 8 7 6 7 9 11 11 11 11 12 13 15 17 18 19 20 21 21 18 15 16 19 20 19 17 15 14 13 12 11 11 11 13 15 15 15 14 13 13 13 14 14 15 15 15 15 15 15

ECMWFFLT1_850_spd_030.txt.gz
Wind_Speed
25 27 30 30 32 33 35 37 38 40 41 42 41 41 40 39 39 39 39 38 38 37 37 36 35 34 33 33 31 30 29 28 28 27 28 28 25 22 18 15 16 19 19 17 16 15 14 13 13 13 10 8 7 8 9 10 9 6 5 5 5 4 4
24 26 29 30 32 34 38 41 43 43 42 42 41 40 40 40 40 40 40 39 38 37 37 37 36 35 34 34 32 31 30 29 29 29 28 28 27 25 23 19 19 21 20 17 16 16 14 13 13 13 10 9 8 9 10 11 10 9 7 6 5 5 5
23 26 28 31 32 34 38 43 46 46 44 43 42 41 41 40 39 39 40 39 38 38 37 37 36 35 35 34 34 33 32 30 30 30 29 29 29 28 26 24 22 21 19 17 16 15 14 14 13 13 11 9 9 10 11 11 12 11 10 8 6 6 6
23 26 28 30 32 33 37 43 47 48 47 45 44 42 41 39 38 38 38 39 38 38 38 38 37 36 36 35 34 34 33 32 31 31 30 30 30 29 27 26 24 21 18 16 15 15 15 14 14 12 11 10 9 10 11 12 13 12 12 9 7 6 7
23 24 26 28 30 32 35 39 44 47 48 46 44 43 41 39 37 38 38 38 37 37 37 37 37 37 37 36 35 35 33 33 32 32 31 31 31 30 28 26 24 21 18 17 17 16 15 14 13 12 11 10 10 11 12 13 13 13 12 10 8 8 7
21 24 26 28 29 31 34 38 40 43 46 47 46 45 42 40 39 38 38 37 37 37 36 37 37 37 37 37 36 35 34 34 33 33 33 32 31 31 28 26 25 23 20 19 18 17 14 13 13 12 11 10 10 11 12 13 13 13 12 10 10 9 8
19 23 26 28 29 31 33 35 35 36 40 42 44 45 43 41 41 40 39 38 37 37 37 37 37 38 37 37 37 36 35 34 34 34 33 32 31 30 29 27 26 25 23 21 20 18 16 14 13 12 11 10 10 11 12 13 14 14 13 12 11 11 10
17 22 25 26 27 27 28 30 31 31 33 36 39 42 43 41 40 41 41 40 38 38 38 37 38 38 38 37 37 37 36 35 35 35 33 33 31 30 30 30 28 26 25 22 21 20 18 15 14 13 12 11 11 11 11 13 15 15 15 15 14 13 12
15 19 21 21 23 24 23 26 28 30 32 35 37 39 41 41 41 42 42 41 40 39 38 38 38 37 37 38 38 38 37 37 37 36 35 34 32 29 31 32 29 28 26 24 23 22 20 18 15 14 14 14 14 14 13 14 17 17 17 17 16 14 12
13 16 17 18 20 21 22 23 27 31 34 37 38 38 40 42 42 42 41 40 40 40 38 38 38 39 38 38 38 38 38 39 38 38 36 32 28 30 34 34 32 31 28 27 27 26 24 21 19 18 17 16 17 16 14 14 17 19 19 19 17 15 13
11 13 15 16 19 21 22 24 28 34 36 38 39 39 40 41 41 41 41 41 40 39 39 39 39 40 39 38 39 39 39 40 39 39 37 33 31 34 36 35 35 34 32 30 30 29 27 25 24 23 21 18 18 17 15 15 18 20 21 20 18 15 13
10 12 13 15 18 21 23 24 29 34 36 37 39 39 39 40 39 39 40 40 39 38 39 40 40 41 41 39 39 40 40 41 41 41 39 37 37 38 37 37 38 37 35 34 33 32 29 28 26 25 23 20 18 17 16 15 19 21 21 20 18 16 14
10 10 12 14 17 21 24 27 31 34 35 37 37 37 37 37 37 38 38 39 38 37 38 39 40 40 41 40 39 40 40 41 41 42 39 37 39 40 39 40 41 39 38 36 35 34 32 30 28 25 23 22 20 19 18 18 20 22 22 21 19 18 17
12 11 13 14 18 22 25 29 32 34 36 36 36 35 35 35 35 36 36 37 37 36 35 37 39 39 40 40 38 38 39 41 41 42 38 33 36 41 40 41 42 40 39 37 37 37 35 32 28 25 24 23 22 22 22 21 22 23 23 22 20 19 18
14 14 15 17 20 22 25 29 33 35 36 35 35 35 34 34 35 35 35 35 36 35 34 35 37 38 38 38 37 35 34 35 40 42 36 31 34 41 42 43 44 42 39 39 40 40 37 33 28 26 25 25 24 24 24 22 23 24 24 23 22 19 17
14 15 18 21 22 23 25 29 33 35 35 35 34 35 35 34 34 34 33 33 34 34 34 35 35 35 36 37 37 32 27 28 35 39 37 32 33 40 43 44 46 45 41 40 41 41 38 33 30 29 29 30 29 27 26 25 25 25 25 25 23 19 16
16 17 19 22 23 24 24 27 31 34 35 35 34 34 34 33 32 30 30 30 31 31 32 33 32 32 33 33 30 25 23 27 33 35 36 33 31 37 42 44 45 45 44 42 42 41 38 35 33 32 31 32 31 29 28 27 26 25 25 26 23 19 17
18 19 20 22 24 25 26 29 33 36 36 34 34 33 31 30 28 28 28 28 27 27 28 28 28 28 28 28 26 21 21 28 31 31 33 32 30 35 39 41 43 44 44 44 43 42 40 37 36 34 32 31 31 31 30 28 26 26 27 27 23 19 17
17 17 17 20 25 26 28 29 31 34 35 33 33 31 28 26 25 25 25 25 24 24 24 24 25 26 25 25 25 21 20 26 30 29 30 30 30 32 34 36 40 43 44 44 44 44 41 39 38 36 31 30 32 31 29 27 28 29 29 28 24 19 18
15 14 14 17 20 23 26 26 27 30 32 32 32 29 26 25 24 23 23 23 22 21 21 21 22 23 22 23 23 20 20 26 30 27 28 28 28 29 31 32 37 41 43 45 46 45 42 39 39 35 31 31 32 31 28 28 30 30 30 29 25 19 19
15 14 14 16 18 21 25 27 29 30 31 31 31 29 28 26 24 22 22 21 20 19 19 19 19 20 19 20 21 20 21 26 26 24 24 25 25 28 29 29 33 39 43 46 47 45 43 41 39 35 31 30 32 31 28 28 29 28 28 29 24 20 19
16 15 16 18 20 23 26 28 29 30 31 30 28 27 26 24 23 22 22 21 20 19 18 17 17 18 17 18 20 21 21 22 22 21 21 21 22 26 26 24 28 35 42 47 48 47 46 44 40 36 33 31 33 33 30 30 30 27 25 25 23 21 21
15 16 16 17 20 25 27 27 27 28 28 27 25 23 23 23 23 23 23 22 21 19 18 18 16 16 17 18 20 21 20 20 19 19 20 20 21 23 21 21 26 32 38 45 48 48 47 41 36 36 34 33 34 34 33 33 31 26 21 20 21 22 23
13 15 17 19 21 24 24 24 24 24 24 24 25 25 25 25 25 25 24 23 22 20 18 16 15 15 16 17 19 19 17 17 17 16 17 18 19 19 18 19 24 29 34 40 46 48 44 36 34 35 34 32 33 35 35 33 28 23 18 18 21 23 23
13 16 19 20 20 22 24 25 26 25 25 27 28 29 29 28 27 26 24 22 20 18 16 14 13 13 13 14 17 17 14 14 15 15 15 16 16 17 16 18 22 27 30 37 44 45 39 32 32 35 33 31 32 34 34 29 23 21 21 20 22 23 23
17 19 19 20 22 26 28 29 30 29 29 31 32 32 31 29 27 25 22 20 18 16 13 11 11 11 11 13 15 14 12 12 13 13 14 14 14 14 16 19 23 26 29 35 39 38 32 27 28 30 30 29 30 32 32 25 21 23 25 23 23 23 24
19 20 20 23 27 30 32 32 33 34 34 34 33 32 30 28 25 23 20 18 15 13 10 10 10 10 11 12 13 12 11 11 12 12 13 13 13 13 16 20 22 25 31 34 33 30 28 26 25 27 27 25 26 29 28 24 22 23 25 24 24 24 25
21 21 24 28 30 32 36 37 37 37 36 34 32 29 27 25 23 21 18 15 13 10 10 9 9 9 9 10 11 11 10 11 11 11 12 14 14 15 17 19 20 24 29 29 26 25 26 27 26 25 23 23 26 27 25 22 21 22 23 23 23 23 22
28 29 32 33 32 34 38 40 39 37 34 32 29 26 24 22 20 18 16 13 12 10 9 8 7 8 8 10 11 11 10 11 11 10 12 15 15 15 16 17 20 23 23 22 21 23 25 27 27 24 23 25 27 25 22 21 20 20 21 21 21 20 19
31 32 31 31 33 36 37 37 36 33 30 28 26 24 22 19 17 16 14 12 11 9 8 7 7 8 9 10 11 10 10 10 10 11 12 13 13 14 15 18 20 21 20 19 20 22 24 26 26 23 24 28 28 24 21 18 17 16 18 18 18 19 17
29 30 30 31 33 33 33 32 32 30 28 25 22 21 19 17 15 14 13 12 10 9 9 8 8 9 10 10 10 9 9 9 10 11 11 12 13 14 16 19 20 19 19 18 19 21 24 27 26 23 23 27 28 25 19 15 14 15 17 16 17 17 17
31 31 32 31 30 29 28 27 26 24 23 20 17 15 14 13 12 12 12 11 11 11 11 10 10 10 9 9 8 8 8 8 10 11 12 13 13 14 17 19 17 18 19 17 17 20 24 27 27 22 19 23 27 24 19 15 14 16 17 15 15 16 16
31 31 30 29 28 26 24 23 21 20 19 17 14 12 11 11 11 11 11 10 11 11 10 10 9 8 7 7 7 7 8 10 11 11 13 13 13 13 16 17 15 17 19 18 18 21 25 28 27 22 19 22 26 23 20 18 16 17 18 17 17 17 17
27 27 26 25 23 22 21 20 20 18 17 16 14 12 11 11 11 10 10 9 9 9 8 8 8 6 5 6 6 7 8 10 10 11 12 13 13 12 14 15 16 17 18 19 21 22 24 26 25 21 21 25 24 21 20 18 16 16 18 17 17 16 17
24 23 22 21 19 18 18 18 17 16 15 14 12 10 8 8 7 7 7 7 8 8 8 9 8 5 5 5 5 6 7 8 10 11 11 12 14 16 17 18 19 18 18 20 22 22 23 25 23 19 20 21 20 18 19 17 15 15 17 17 15 13 14
22 21 20 19 17 16 16 15 14 13 12 11 9 7 5 4 4 5 6 7 9 10 10 9 7 5 6 6 6 7 8 8 10 11 12 13 16 19 21 22 21 21 19 19 20 22 24 25 23 19 17 17 17 17 18 17 17 17 18 18 16 15 15
20 18 17 16 15 14 13 13 11 10 8 7 5 4 3 3 3 4 5 7 8 9 10 8 6 6 7 7 8 9 9 8 10 12 14 16 18 19 21 22 22 21 21 20 19 20 22 23 22 20 18 18 18 17 16 17 18 18 17 17 16 16 15
17 16 14 13 12 11 11 10 9 7 6 5 4 2 2 1 2 2 4 6 7 8 8 7 5 6 7 9 10 11 9 9 12 15 16 17 18 18 18 19 19 19 20 20 18 16 16 18 19 19 18 17 15 15 17 18 18 18 17 16 15 14 14

ECMWFFLT1_850_spd_033.txt.gz
Wind_Speed
24 23 27 31 33 33 35 36 36 36 37 38 38 38 38 37 36 35 33 35 38 38 37 36 35 34 33 31 30 29 29 28 27 27 26 25 24 23 22 19 16 15 15 14 14 13 13 13 13 13 12 9 8 9 9 8 9 8 6 6 6 6 6
26 26 30 33 34 34 36 36 37 37 38 38 38 38 38 38 39 37 35 36 40 40 38 38 36 35 35 33 32 32 31 30 29 28 27 26 25 24 23 21 19 17 16 16 15 13 13 14 14 13 13 10 9 9 9 8 9 8 7 6 6 6 6
23 26 30 33 34 34 35 37 38 39 38 39 39 39 40 40 41 42 39 38 40 40 39 38 37 37 36 35 34 33 33 32 32 30 29 27 26 25 24 23 22 19 17 17 16 15 15 15 14 14 13 11 10 9 9 9 9 9 9 8 6 5 6
22 27 30 32 34 34 35 37 39 40 40 40 41 42 43 43 43 44 43 42 42 41 39 39 38 37 37 36 35 34 34 34 33 32 30 28 27 26 25 25 24 22 20 19 17 17 16 16 16 15 13 12 11 10 10 10 10 10 10 10 9 7 7
19 22 26 30 32 33 34 37 39 40 40 40 40 42 43 44 44 44 44 44 42 40 39 39 38 38 38 37 36 36 35 34 34 33 32 30 28 28 27 27 26 25 23 22 20 20 20 18 17 16 14 13 13 13 12 10 11 12 12 11 10 9 9
17 19 25 28 30 32 34 35 38 39 40 39 40 41 43 43 44 43 43 43 43 40 39 38 38 39 38 38 38 37 36 35 35 34 33 32 31 30 29 28 28 26 25 25 25 24 23 20 18 17 16 14 15 16 14 12 12 13 14 13 11 11 10
22 23 26 27 28 31 33 34 35 36 38 38 38 40 42 42 43 42 41 42 43 42 40 39 39 39 39 39 39 38 37 36 36 35 34 34 33 33 32 31 30 27 26 27 28 28 25 22 21 20 18 17 18 18 15 13 14 14 15 15 13 12 11
24 24 26 27 28 29 30 32 33 34 36 37 38 40 41 41 41 41 40 41 42 42 41 40 40 40 39 39 40 39 38 37 36 36 35 35 35 35 34 33 32 30 28 27 28 30 28 25 24 23 21 21 21 19 15 15 15 15 15 15 14 12 11
20 23 23 24 24 25 27 29 31 32 35 37 38 40 41 42 41 40 40 40 40 41 41 40 40 40 39 40 40 40 39 38 38 37 36 36 37 37 36 35 34 34 30 25 27 31 30 28 27 25 24 24 22 20 18 18 18 17 16 15 14 13 13
14 19 21 20 20 22 24 26 28 31 34 37 39 38 40 42 41 39 39 39 39 40 41 40 39 39 39 40 40 40 39 40 39 39 39 39 39 38 37 36 34 35 32 26 27 33 33 30 29 28 27 26 24 22 20 20 20 18 16 15 14 14 15
10 14 18 18 19 20 22 25 28 31 34 37 38 37 38 40 40 40 41 40 38 38 40 39 38 39 40 39 39 39 40 40 40 41 41 41 40 39 37 34 32 34 35 31 31 35 35 33 32 31 30 28 25 23 21 21 20 18 17 16 15 15 16
14 16 17 19 20 21 23 25 29 32 33 36 37 35 36 38 38 40 42 42 38 36 38 39 38 38 39 39 39 40 40 40 41 42 42 42 41 39 37 34 31 32 32 32 34 38 37 36 35 33 32 29 26 24 23 22 21 20 18 16 17 18 17
17 18 18 20 21 21 23 25 28 32 33 35 35 33 34 36 36 38 42 42 38 34 36 38 37 37 38 39 39 39 41 41 41 42 42 42 41 39 38 35 33 31 29 26 30 37 39 38 37 36 34 31 28 26 25 22 22 23 20 16 19 20 18
17 17 18 20 21 22 24 24 26 30 32 33 33 31 32 33 34 36 39 41 38 34 34 36 37 37 38 39 38 38 40 40 40 41 41 41 40 40 40 39 35 33 30 27 28 35 39 39 38 37 35 31 28 27 26 24 24 26 23 18 20 22 20
18 18 18 20 22 23 25 26 27 30 32 34 33 33 32 32 33 35 36 39 39 34 32 34 36 37 38 39 38 38 38 38 39 40 40 40 40 40 40 41 39 34 31 29 30 34 37 38 38 38 36 32 29 27 28 27 28 29 24 19 21 23 22
19 18 17 19 21 21 23 26 29 30 32 33 34 34 33 33 34 35 35 37 39 35 33 33 36 38 39 39 39 37 37 38 38 38 38 38 39 41 41 41 40 35 32 31 31 34 35 36 38 39 37 34 30 28 29 30 31 31 24 19 22 25 23
20 19 16 15 17 19 22 25 28 30 32 35 36 35 35 34 35 35 34 36 38 37 34 34 36 39 39 39 38 37 37 37 36 36 36 35 34 36 39 41 38 33 31 31 32 34 35 36 40 40 38 36 31 29 32 34 34 31 24 20 24 26 25
20 20 18 15 15 18 21 24 27 30 34 36 37 37 36 35 35 35 34 34 37 37 34 33 36 38 38 38 37 36 36 36 35 35 35 33 29 25 29 37 36 30 31 33 33 33 36 39 42 41 38 35 32 32 35 37 35 30 24 23 25 26 25
23 23 21 19 18 19 22 24 27 30 33 34 36 37 36 34 34 35 34 34 35 36 34 33 35 36 36 35 34 34 34 31 30 32 31 32 30 21 19 26 29 27 30 33 31 34 40 43 43 40 37 35 34 34 36 37 34 28 25 26 26 25 24
29 28 26 22 20 22 24 25 26 28 30 31 33 34 32 31 32 34 34 33 35 36 35 34 33 34 34 32 29 30 29 25 23 24 24 27 26 20 17 19 21 24 28 29 30 34 38 42 42 39 37 35 35 36 37 36 31 25 25 28 27 25 24
32 31 29 24 22 25 26 25 25 27 29 30 30 31 30 30 32 33 34 34 35 36 36 35 33 31 31 29 28 27 26 24 22 21 20 21 21 19 17 17 18 22 23 25 30 32 32 37 40 38 36 36 36 36 35 33 28 23 25 29 29 28 26
35 33 30 25 24 27 29 26 25 27 30 30 31 32 30 30 30 32 34 35 34 34 33 33 32 30 28 27 26 25 25 25 22 18 17 17 17 17 17 16 19 23 22 23 29 30 28 33 39 39 38 37 36 35 34 31 27 24 26 28 28 28 26
33 32 29 26 25 27 29 26 24 27 29 30 32 32 30 29 29 31 34 35 33 32 31 31 30 29 26 25 25 24 25 25 21 17 15 16 17 18 17 17 19 21 21 22 26 29 27 26 33 40 40 38 38 37 32 28 26 25 26 27 27 26 23
28 25 21 22 24 26 26 25 25 29 31 31 33 32 31 31 31 33 35 34 33 32 30 29 29 28 27 26 25 24 23 23 21 16 14 15 17 17 15 16 17 19 20 21 23 25 23 20 27 37 38 36 37 36 30 25 25 25 25 26 27 24 21
27 23 19 19 22 24 24 24 26 29 30 32 34 34 34 34 34 35 35 33 31 30 30 30 29 28 27 26 24 23 22 21 20 16 14 14 15 16 15 16 17 18 20 20 20 21 20 20 27 36 37 35 35 34 31 26 25 26 27 27 27 23 21
23 22 20 19 21 22 23 26 29 31 31 33 35 35 35 35 35 35 35 32 30 29 30 30 29 28 26 24 22 21 20 20 19 17 15 14 15 16 17 17 18 19 19 20 21 23 23 25 30 35 38 37 35 33 30 26 25 26 27 26 25 22 21
18 19 19 19 21 23 24 26 29 29 29 31 33 32 32 34 35 35 35 32 28 26 26 27 27 26 23 21 20 19 19 20 19 17 14 13 14 16 16 17 18 20 20 20 20 21 23 27 31 33 33 30 27 25 23 22 24 26 25 23 22 21 21
15 17 17 19 22 24 25 25 24 24 25 27 28 27 28 31 34 34 32 27 23 22 23 24 24 22 20 18 18 18 18 18 16 13 11 12 14 15 15 17 19 19 19 18 17 17 20 24 28 28 25 22 21 21 22 23 24 25 25 24 23 21 21
16 17 17 20 22 23 24 25 24 24 25 26 26 24 24 28 31 30 27 23 22 22 23 22 21 18 16 16 16 16 17 15 12 10 10 11 13 15 16 19 20 21 21 19 17 18 19 20 22 22 22 23 21 21 21 23 25 27 28 27 23 20 20
16 17 18 20 21 22 24 26 27 27 26 26 26 25 27 31 32 30 27 25 24 24 22 20 18 15 14 14 15 15 15 12 10 9 9 10 14 17 20 21 21 21 21 18 17 18 17 15 17 21 24 24 21 21 23 25 26 28 27 24 21 20 20
17 19 20 21 23 25 27 28 29 29 28 28 29 29 30 32 32 30 28 26 24 21 19 17 15 13 12 13 14 14 13 11 9 9 9 11 14 18 21 21 18 17 16 14 13 14 15 15 19 23 25 24 24 25 24 22 22 24 23 19 18 18 19
19 21 23 24 26 29 31 31 32 32 32 31 31 31 30 28 27 26 24 22 19 17 15 13 12 10 11 12 12 13 12 9 9 9 9 11 15 17 19 18 15 14 14 13 13 14 16 17 20 22 24 25 25 24 22 20 21 22 19 15 13 15 17
22 23 25 27 29 31 33 33 33 34 34 32 29 28 27 24 22 20 19 17 15 13 12 11 10 9 9 10 11 11 10 9 9 9 9 11 13 15 15 15 14 14 14 14 15 16 17 19 21 22 24 24 23 23 23 23 23 22 17 14 12 14 16
24 25 25 25 27 29 31 31 32 32 32 30 27 25 24 22 20 18 17 16 15 13 12 10 9 8 9 10 10 9 8 9 11 10 9 11 13 14 14 14 13 13 13 15 16 16 17 21 24 25 26 25 24 24 23 23 24 21 16 13 13 15 14
24 25 25 24 25 28 29 29 29 29 28 26 24 23 21 20 19 18 17 16 14 12 11 10 9 9 10 9 9 8 8 9 10 10 10 14 16 17 18 17 16 16 16 17 19 19 19 22 25 25 25 24 23 22 21 23 24 20 15 13 13 13 13
23 23 23 23 24 25 25 25 24 24 23 22 20 18 17 16 15 14 13 12 10 9 8 8 8 9 9 9 9 9 8 8 10 11 13 16 17 18 18 18 18 20 20 19 20 21 21 22 25 24 23 24 23 20 20 21 20 16 14 13 12 12 13
20 20 20 20 21 21 21 21 20 20 19 18 16 15 14 13 11 10 8 7 6 6 6 6 7 9 11 10 10 11 10 9 10 12 15 16 16 16 17 18 18 20 20 19 19 20 21 23 25 24 23 24 22 18 17 17 16 13 12 12 12 13 14
18 18 17 18 18 19 18 18 17 17 16 16 15 14 13 12 10 8 6 5 5 5 6 7 9 10 10 9 10 13 13 11 11 14 15 15 14 14 16 18 19 19 19 17 16 18 20 23 23 23 22 22 19 14 12 14 16 14 14 15 15 15 14

ECMWFFLT1_850_spd_036.txt.gz
Wind_Speed
27 28 30 30 30 33 36 37 39 40 40 41 44 45 43 41 40 39 39 40 40 39 38 37 37 37 36 34 32 32 32 31 30 29 28 27 25 24 24 23 23 22 21 20 20 20 19 18 16 17 16 13 12 12 11 10 13 15 17 20 19 13 12
29 29 31 33 34 36 40 41 40 41 41 42 45 46 44 43 42 42 41 40 41 40 39 38 38 38 37 35 33 32 32 31 30 30 29 28 27 26 25 25 25 23 21 20 20 19 19 19 19 19 18 14 12 12 11 11 13 15 15 17 18 15 15
33 33 34 35 36 38 41 42 41 42 42 43 45 47 46 45 45 45 43 42 42 41 39 39 39 40 38 36 35 34 33 32 31 31 30 30 29 28 27 26 25 23 22 21 20 19 19 19 20 20 19 17 13 12 11 11 13 15 14 13 14 15 15
36 34 34 34 36 37 40 41 41 41 42 43 45 47 48 47 46 46 45 43 43 42 42 41 40 41 40 38 37 36 34 34 33 32 31 30 30 29 29 28 27 25 24 23 22 21 20 20 20 20 20 18 15 13 12 12 13 14 16 15 12 13 13
36 36 35 35 34 34 36 38 39 40 41 41 43 46 48 47 47 46 45 44 43 43 43 42 40 41 41 39 38 37 36 35 34 33 32 31 30 30 31 30 29 28 26 25 25 24 23 22 22 21 21 19 17 15 13 13 14 14 17 17 14 12 12
36 36 37 37 35 35 36 37 36 38 39 40 41 44 45 46 46 46 46 45 44 43 43 42 41 41 42 41 40 38 38 37 36 35 33 32 31 31 31 31 30 30 29 27 27 26 25 24 24 23 22 20 18 16 15 15 16 15 15 18 17 15 14
41 38 37 35 33 33 35 35 35 36 37 37 38 40 42 43 44 45 44 44 44 43 43 43 42 42 42 42 41 40 39 39 38 37 35 34 33 32 32 31 31 31 30 29 29 28 27 27 27 25 24 22 20 18 17 17 18 17 15 17 18 17 16
40 34 32 33 31 29 29 31 32 34 36 38 37 39 42 43 43 44 44 44 45 44 44 45 44 43 43 42 42 41 40 40 39 38 37 36 34 33 32 32 32 32 31 31 31 30 30 30 29 28 27 25 22 20 20 20 20 19 17 17 18 17 17
37 34 32 33 30 27 29 31 32 34 36 40 41 41 43 43 44 46 46 45 46 46 45 45 44 43 42 42 42 42 41 41 40 39 38 38 36 35 34 33 33 33 33 32 32 32 32 32 32 31 30 28 26 24 23 22 22 21 19 18 17 16 17
37 38 34 32 31 30 30 31 34 36 38 42 44 43 44 45 45 46 46 45 45 47 46 45 44 43 42 42 43 42 42 41 41 40 39 39 38 37 36 36 35 34 34 33 33 33 34 34 33 32 32 31 30 28 27 25 24 23 21 18 15 15 17
36 37 34 33 33 34 32 30 34 38 40 44 45 44 44 45 44 44 46 46 45 45 46 44 43 42 42 43 43 43 43 42 42 41 40 40 39 38 38 37 36 35 35 35 35 34 35 35 35 34 34 34 33 32 31 28 26 25 23 20 17 15 17
38 36 36 36 35 36 35 33 36 39 41 44 45 45 44 44 44 43 44 45 43 43 44 43 42 42 42 43 43 43 43 44 43 42 41 40 39 39 38 37 36 34 32 33 36 36 35 36 36 35 36 36 36 35 34 30 29 28 25 22 20 17 17
33 32 35 35 33 34 34 33 37 40 42 43 44 45 44 44 44 43 43 44 41 40 42 43 42 42 42 43 43 44 44 44 44 43 42 41 40 39 37 36 36 33 30 30 33 35 36 37 36 35 35 36 38 38 36 33 31 29 26 24 21 18 18
28 29 33 30 28 30 30 30 34 38 40 41 42 43 42 43 44 43 42 43 42 40 41 42 43 43 43 42 42 43 44 44 43 42 42 41 40 39 38 36 36 34 32 31 31 31 34 36 37 35 34 36 39 40 38 35 33 30 27 24 21 20 21
19 18 26 29 28 29 30 29 30 33 37 38 38 41 41 41 43 43 42 42 43 41 40 42 43 44 44 43 42 42 43 42 42 41 41 40 40 40 39 38 36 34 34 34 32 31 31 33 35 35 34 35 39 41 40 37 34 32 29 24 23 24 23
17 11 14 22 26 27 27 28 28 29 33 35 35 39 40 40 42 43 43 42 43 43 41 42 44 44 44 44 43 42 41 41 41 40 40 40 40 40 40 39 37 35 35 36 35 33 31 31 34 36 35 36 39 41 41 39 36 34 31 26 25 26 26
24 26 23 21 22 24 24 26 28 29 31 34 36 37 39 40 40 42 42 41 43 44 42 42 44 45 45 45 43 41 40 40 40 39 40 40 40 40 40 39 37 36 35 36 35 34 32 33 36 37 37 37 38 39 40 40 38 36 34 27 24 27 27
26 31 31 25 23 25 25 26 29 32 33 35 36 37 39 40 39 40 41 41 43 44 43 43 44 45 45 45 43 41 40 40 39 39 39 39 39 39 38 37 36 35 35 34 34 34 34 35 37 39 38 37 36 35 37 40 39 38 35 27 23 27 29
26 25 29 29 29 29 29 30 31 32 33 35 35 36 39 41 41 41 42 42 42 44 43 43 44 44 44 44 43 41 40 39 39 38 38 37 37 36 35 35 36 35 34 33 33 34 36 37 38 40 40 38 35 32 33 37 40 39 35 27 23 28 31
24 24 24 29 33 33 31 32 32 31 30 31 31 32 35 39 41 41 41 39 40 43 43 42 43 43 43 43 41 40 39 38 38 37 36 35 34 33 33 34 34 34 32 31 32 34 36 37 38 38 40 40 37 32 32 36 40 40 36 28 24 30 33
23 23 19 20 29 35 33 31 32 31 30 29 28 29 32 36 38 39 40 39 40 43 43 42 41 42 42 42 40 39 38 38 37 35 33 32 30 30 32 33 32 31 27 26 29 33 35 37 38 38 39 39 37 35 34 36 39 41 38 29 27 32 34
26 26 24 21 23 28 30 29 30 30 29 28 29 30 31 34 36 38 40 40 40 42 43 41 40 40 41 41 39 39 38 37 36 34 32 29 27 27 30 31 30 27 25 26 29 32 33 35 38 39 38 38 37 36 35 36 39 42 39 30 28 33 35
30 30 29 29 30 28 27 30 31 30 29 28 30 31 30 32 35 37 39 40 41 42 42 41 40 40 40 40 39 38 37 35 33 31 30 28 26 24 25 28 27 25 25 27 29 29 31 34 36 38 38 38 37 35 35 36 39 41 37 29 29 34 34
36 37 35 33 35 37 35 33 32 31 31 30 30 31 30 32 34 37 40 41 41 42 42 41 40 38 38 39 37 35 33 31 29 29 28 26 24 21 21 23 24 22 24 26 26 26 28 32 34 36 37 36 34 34 35 37 38 38 34 29 31 33 33
37 40 38 35 35 35 37 38 37 34 33 32 32 31 31 33 35 38 41 41 40 41 42 41 38 35 33 34 32 30 29 27 26 27 27 24 21 19 19 20 20 20 21 24 24 24 25 29 31 32 33 31 29 32 35 37 38 37 32 30 31 32 32
27 30 31 32 30 25 25 32 34 34 33 32 32 32 33 34 36 39 42 40 39 39 41 40 36 30 28 29 28 26 26 26 25 25 24 22 19 18 19 19 19 19 20 21 22 23 24 25 26 28 28 27 27 31 35 36 38 35 30 29 31 31 31
18 19 22 30 30 23 20 24 27 28 29 29 30 32 33 34 36 39 40 38 37 38 38 38 35 29 27 27 27 26 26 25 24 24 24 21 19 20 19 18 17 18 19 20 21 22 23 23 23 25 27 27 28 31 34 36 38 34 29 28 29 28 28
20 17 19 26 31 28 25 25 26 26 27 28 31 33 34 35 36 37 38 37 36 35 35 35 34 31 29 29 28 27 26 25 24 24 24 21 20 20 19 17 16 17 19 20 21 22 23 25 26 27 28 29 30 32 35 37 38 34 29 27 28 27 26
16 10 10 13 20 26 27 27 28 28 28 30 31 33 35 36 37 37 37 35 33 33 34 35 34 32 31 30 29 28 26 25 24 23 21 19 18 18 17 17 17 18 18 19 21 22 23 26 28 29 29 30 31 33 33 33 33 32 30 29 29 27 23
9 11 11 9 11 18 23 26 27 28 28 29 32 35 36 36 36 36 35 34 33 34 35 35 34 32 32 31 29 28 25 23 22 21 18 17 16 15 15 15 16 17 18 19 21 23 23 23 24 25 27 29 31 30 28 26 26 26 26 26 27 25 22
5 7 13 15 14 15 18 22 26 28 29 30 33 34 34 34 37 37 35 35 35 35 36 35 34 32 32 30 28 26 24 22 21 19 16 14 15 14 14 16 17 18 19 19 21 23 22 20 19 21 23 25 27 25 24 25 24 23 22 23 24 25 24
6 4 3 8 14 18 20 22 26 28 28 30 32 32 32 35 38 39 37 35 34 35 36 34 32 31 29 27 25 24 22 20 19 17 14 13 13 12 14 16 18 19 19 20 22 22 22 21 21 20 22 24 24 23 25 27 27 25 25 25 26 26 25
5 3 3 1 4 14 22 25 28 29 29 31 33 32 34 37 37 35 33 30 29 32 33 31 29 28 27 25 23 21 19 18 17 16 15 14 13 13 15 17 18 18 19 21 23 23 23 22 21 20 21 23 24 24 26 28 27 26 27 28 28 27 25
7 8 9 6 4 7 16 21 24 27 29 30 31 32 35 36 33 30 29 29 29 30 29 27 27 26 25 23 22 20 18 17 15 13 13 14 15 15 16 17 18 18 18 20 20 20 19 18 20 21 21 22 24 26 28 29 28 27 27 28 27 24 23
11 11 13 12 9 10 16 19 19 21 23 24 26 30 32 32 30 29 30 30 29 28 27 26 25 24 22 21 20 20 19 17 14 12 13 14 15 16 16 16 17 17 17 17 17 17 18 20 20 20 19 21 26 29 30 31 30 27 24 24 22 19 19
16 18 18 17 15 15 17 19 18 21 24 26 28 29 29 27 27 26 26 26 24 22 22 21 20 19 17 16 17 18 17 16 15 14 14 13 12 12 14 15 16 16 15 17 18 18 21 23 21 18 19 22 25 28 30 30 28 23 20 21 19 15 15
17 22 22 20 19 19 20 21 22 24 26 27 27 26 25 23 22 21 21 20 19 17 15 15 15 15 14 14 16 16 14 14 15 15 14 12 11 11 12 14 16 16 16 18 19 19 22 24 21 18 20 21 21 24 27 26 23 19 18 19 16 13 14
16 21 23 22 22 22 23 23 24 24 24 24 23 22 22 21 20 19 17 16 15 14 14 14 15 14 13 14 14 11 12 15 17 15 12 12 13 13 13 14 16 17 18 20 21 20 21 22 20 18 19 20 20 21 20 17 15 14 15 15 14 13 15